GFSNIL_prec_kuchsnow_240.txt.gz
Snowfall_Accumulation
0.0 0.0 0.0 0.0 0.0 0.0 0.0 0.0 0.0 0.0 0.0 0.0 0.0 0.0 0.0 0.0 0.0 0.0 0.0 0.0 0.0 0.0
0.0 0.0 0.0 0.0 0.0 0.0 0.0 0.0 0.0 0.0 0.0 0.0 0.0 0.0 0.0 0.0 0.0 0.0 0.0 0.0 0.0 0.0
0.0 0.0 0.0 0.0 0.0 0.0 0.0 0.0 0.0 0.0 0.0 0.0 0.0 0.0 0.0 0.0 0.0 0.0 0.0 0.0 0.0 0.0
0.0 0.0 0.0 0.0 0.0 0.0 0.0 0.0 0.0 0.0 0.0 0.0 0.0 0.0 0.0 0.0 0.0 0.0 0.0 0.0 0.0 0.0
0.0 0.0 0.0 0.0 0.0 0.0 0.0 0.0 0.0 0.0 0.0 0.0 0.0 0.0 0.0 0.0 0.0 0.0 0.0 0.0 0.0 0.0
0.0 0.0 0.0 0.0 0.0 0.0 0.0 0.0 0.0 0.0 0.0 0.0 0.0 0.0 0.0 0.0 0.0 0.0 0.0 0.0 0.0 0.0
0.0 0.0 0.0 0.0 0.0 0.0 0.0 0.0 0.0 0.0 0.0 0.0 0.0 0.0 0.0 0.0 0.0 0.0 0.0 0.0 0.0 0.0
0.0 0.0 0.0 0.0 0.0 0.0 0.0 0.0 0.0 0.0 0.0 0.0 0.0 0.0 0.0 0.0 0.0 0.0 0.0 0.0 0.4 0.4
0.0 0.0 0.0 0.0 0.0 0.0 0.0 0.0 0.0 0.0 0.0 0.0 0.0 0.0 0.0 0.0 0.0 0.0 0.6 0.7 1.7 1.3
0.0 0.0 0.0 0.0 0.0 0.0 0.0 0.0 0.0 0.4 0.2 0.1 0.0 0.0 0.0 0.0 0.2 2.0 3.0 2.5 2.5 1.2
0.1 0.0 0.0 0.0 0.0 0.0 0.0 0.5 0.0 0.0 0.1 2.1 1.9 0.9 0.3 1.4 3.0 2.6 2.7 1.8 1.5 0.6
0.1 0.0 0.0 0.2 0.2 1.0 1.4 3.2 3.5 4.1 5.4 4.4 3.1 0.2 0.5 1.4 1.4 1.5 1.0 0.2 0.0 0.0
0.4 1.1 2.9 1.5 1.0 4.5 3.4 2.3 2.8 3.8 3.3 1.2 1.4 0.1 0.4 0.3 0.1 0.1 0.2 0.0 0.0 0.0
0.9 0.8 1.5 2.5 3.3 3.1 3.7 3.5 3.3 2.3 1.0 0.0 0.0 0.0 0.0 0.0 0.0 0.0 0.3 0.1 0.0 0.0

GFSNIL_prec_kuchsnow_243.txt.gz
Snowfall_Accumulation
0.0 0.0 0.0 0.0 0.0 0.0 0.0 0.0 0.0 0.0 0.0 0.0 0.0 0.0 0.0 0.0 0.0 0.0 0.0 0.0 0.0 0.0
0.0 0.0 0.0 0.0 0.0 0.0 0.0 0.0 0.0 0.0 0.0 0.0 0.0 0.0 0.0 0.0 0.0 0.0 0.0 0.0 0.0 0.0
0.0 0.0 0.0 0.0 0.0 0.0 0.0 0.0 0.0 0.0 0.0 0.0 0.0 0.0 0.0 0.0 0.0 0.0 0.0 0.0 0.0 0.0
0.0 0.0 0.0 0.0 0.0 0.0 0.0 0.0 0.0 0.0 0.0 0.0 0.0 0.0 0.0 0.0 0.0 0.0 0.0 0.0 0.0 0.0
0.0 0.0 0.0 0.0 0.0 0.0 0.0 0.0 0.0 0.0 0.0 0.0 0.0 0.0 0.0 0.0 0.0 0.0 0.0 0.0 0.0 0.0
0.0 0.0 0.0 0.0 0.0 0.0 0.0 0.0 0.0 0.0 0.0 0.0 0.0 0.0 0.0 0.0 0.0 0.0 0.0 0.0 0.0 0.0
0.0 0.0 0.0 0.0 0.0 0.0 0.0 0.0 0.0 0.0 0.0 0.0 0.0 0.0 0.0 0.0 0.0 0.0 0.0 0.0 0.0 0.0
0.0 0.0 0.0 0.0 0.0 0.0 0.0 0.0 0.0 0.0 0.0 0.0 0.0 0.0 0.0 0.0 0.0 0.0 0.0 0.0 0.4 0.4
0.0 0.0 0.0 0.0 0.0 0.0 0.0 0.0 0.0 0.0 0.0 0.0 0.0 0.0 0.0 0.0 0.0 0.0 0.6 0.7 1.7 1.3
0.1 0.0 0.0 0.0 0.0 0.0 0.0 0.0 0.0 0.4 0.2 0.1 0.0 0.0 0.0 0.0 0.2 2.0 3.0 2.5 2.5 1.2
0.3 0.0 0.0 0.0 0.0 0.0 0.0 0.5 0.0 0.0 0.1 2.1 1.9 0.9 0.3 1.4 3.0 2.6 2.7 1.8 1.5 0.6
0.1 0.0 0.0 0.2 0.2 1.0 1.4 3.2 3.5 4.1 5.4 4.4 3.1 0.2 0.5 1.4 1.4 1.5 1.0 0.2 0.0 0.0
0.7 1.4 3.0 1.6 1.0 4.5 3.4 2.3 2.8 3.8 3.3 1.2 1.4 0.1 0.4 0.3 0.1 0.1 0.2 0.0 0.0 0.0
1.5 1.3 1.7 2.9 3.3 3.1 3.7 3.5 3.3 2.3 1.0 0.0 0.0 0.0 0.0 0.0 0.0 0.0 0.3 0.1 0.0 0.0

GFSNIL_prec_kuchsnow_246.txt.gz
Snowfall_Accumulation
0.0 0.0 0.0 0.0 0.0 0.0 0.0 0.0 0.0 0.0 0.0 0.0 0.0 0.0 0.0 0.0 0.0 0.0 0.0 0.0 0.0 0.0
0.0 0.0 0.0 0.0 0.0 0.0 0.0 0.0 0.0 0.0 0.0 0.0 0.0 0.0 0.0 0.0 0.0 0.0 0.0 0.0 0.0 0.0
0.0 0.0 0.0 0.0 0.0 0.0 0.0 0.0 0.0 0.0 0.0 0.0 0.0 0.0 0.0 0.0 0.0 0.0 0.0 0.0 0.0 0.0
0.3 0.1 0.0 0.0 0.0 0.0 0.0 0.0 0.0 0.0 0.0 0.0 0.0 0.0 0.0 0.0 0.0 0.0 0.0 0.0 0.0 0.0
0.9 0.6 0.1 0.0 0.0 0.0 0.0 0.0 0.0 0.0 0.0 0.0 0.0 0.0 0.0 0.0 0.0 0.0 0.0 0.0 0.0 0.0
0.7 0.9 0.4 0.0 0.0 0.0 0.0 0.0 0.0 0.0 0.0 0.0 0.0 0.0 0.0 0.0 0.0 0.0 0.0 0.0 0.0 0.0
0.3 0.3 0.3 0.0 0.0 0.0 0.0 0.0 0.0 0.0 0.0 0.0 0.0 0.0 0.0 0.0 0.0 0.0 0.0 0.0 0.0 0.0
0.0 0.4 0.1 0.0 0.0 0.0 0.0 0.0 0.0 0.0 0.0 0.0 0.0 0.0 0.0 0.0 0.0 0.0 0.0 0.0 0.4 0.4
0.0 0.0 0.4 0.1 0.0 0.0 0.0 0.0 0.0 0.0 0.0 0.0 0.0 0.0 0.0 0.0 0.0 0.0 0.6 0.7 1.7 1.3
0.1 0.0 0.0 0.2 0.0 0.0 0.0 0.0 0.0 0.4 0.2 0.1 0.0 0.0 0.0 0.0 0.2 2.0 3.0 2.5 2.5 1.2
0.3 0.0 0.0 0.0 0.0 0.0 0.0 0.5 0.0 0.0 0.1 2.1 1.9 0.9 0.3 1.4 3.0 2.6 2.7 1.8 1.5 0.6
0.1 0.0 0.0 0.2 0.2 1.0 1.4 3.2 3.5 4.1 5.4 4.4 3.1 0.2 0.5 1.4 1.4 1.5 1.0 0.2 0.0 0.0
0.7 1.4 3.1 1.6 1.0 4.5 3.4 2.3 2.8 3.8 3.3 1.2 1.4 0.1 0.4 0.3 0.1 0.1 0.2 0.0 0.0 0.0
1.5 1.4 1.8 3.0 3.3 3.1 3.7 3.5 3.3 2.3 1.0 0.0 0.0 0.0 0.0 0.0 0.0 0.0 0.3 0.1 0.0 0.0

GFSNIL_prec_kuchsnow_249.txt.gz
Snowfall_Accumulation
0.0 0.0 0.0 0.0 0.0 0.0 0.0 0.0 0.0 0.0 0.0 0.0 0.0 0.0 0.0 0.0 0.0 0.0 0.0 0.0 0.0 0.0
0.3 0.4 0.4 0.0 0.0 0.0 0.0 0.0 0.0 0.0 0.0 0.0 0.0 0.0 0.0 0.0 0.0 0.0 0.0 0.0 0.0 0.0
0.6 0.7 0.6 0.6 0.0 0.0 0.0 0.0 0.0 0.0 0.0 0.0 0.0 0.0 0.0 0.0 0.0 0.0 0.0 0.0 0.0 0.0
0.3 0.1 0.6 0.5 0.2 0.1 0.0 0.0 0.0 0.0 0.0 0.0 0.0 0.0 0.0 0.0 0.0 0.0 0.0 0.0 0.0 0.0
0.9 0.6 0.1 0.5 0.4 0.2 0.0 0.0 0.0 0.0 0.0 0.0 0.0 0.0 0.0 0.0 0.0 0.0 0.0 0.0 0.0 0.0
0.7 0.9 0.4 0.0 0.0 0.4 0.3 0.0 0.0 0.0 0.0 0.0 0.0 0.0 0.0 0.0 0.0 0.0 0.0 0.0 0.0 0.0
0.3 0.3 0.3 0.0 0.0 0.9 0.4 0.2 0.0 0.0 0.0 0.0 0.0 0.0 0.0 0.0 0.0 0.0 0.0 0.0 0.0 0.0
0.0 0.4 0.1 0.0 0.0 0.0 0.9 0.7 0.1 0.0 0.0 0.0 0.0 0.0 0.0 0.0 0.0 0.0 0.0 0.0 0.4 0.4
0.0 0.0 0.4 0.1 0.3 0.0 0.0 0.8 0.0 0.0 0.0 0.0 0.0 0.0 0.0 0.0 0.0 0.0 0.6 0.7 1.7 1.3
0.1 0.0 0.0 0.2 0.2 0.2 0.4 0.5 0.1 0.4 0.2 0.1 0.0 0.0 0.0 0.0 0.2 2.0 3.0 2.5 2.5 1.2
0.3 0.0 0.0 0.3 0.4 0.2 0.2 0.7 0.1 0.0 0.1 2.1 1.9 0.9 0.3 1.4 3.0 2.6 2.7 1.8 1.5 0.6
0.1 0.0 0.0 0.4 0.4 1.2 1.6 3.3 3.5 4.1 5.4 4.4 3.1 0.2 0.5 1.4 1.4 1.5 1.0 0.2 0.0 0.0
0.7 1.4 3.4 1.6 1.2 4.5 3.5 2.3 2.8 3.8 3.3 1.2 1.4 0.1 0.4 0.3 0.1 0.1 0.2 0.0 0.0 0.0
1.5 1.7 2.2 3.3 3.4 3.2 3.7 3.6 3.3 2.3 1.0 0.0 0.0 0.0 0.0 0.0 0.0 0.0 0.3 0.1 0.0 0.0

GFSNIL_prec_kuchsnow_252.txt.gz
Snowfall_Accumulation
0.0 0.0 0.0 0.0 0.0 0.0 0.0 0.0 0.0 0.0 0.0 0.0 0.0 0.0 0.0 0.0 0.0 0.0 0.0 0.0 0.0 0.0
0.3 0.4 0.4 0.0 0.0 0.0 0.0 0.0 0.0 0.0 0.0 0.0 0.0 0.0 0.0 0.0 0.0 0.0 0.0 0.0 0.0 0.0
0.6 0.7 0.6 0.6 0.0 0.0 0.2 0.0 0.0 0.0 0.0 0.0 0.0 0.0 0.0 0.0 0.0 0.0 0.0 0.0 0.0 0.0
0.3 0.1 0.6 0.5 0.2 0.1 0.0 0.0 0.3 0.0 0.0 0.0 0.0 0.0 0.0 0.0 0.0 0.0 0.0 0.0 0.0 0.0
0.9 0.6 0.1 0.5 0.4 0.2 0.0 0.0 0.0 0.6 0.0 0.0 0.0 0.0 0.0 0.0 0.0 0.0 0.0 0.0 0.0 0.0
0.7 0.9 0.4 0.0 0.0 0.4 0.3 0.0 0.6 0.8 1.1 0.0 0.0 0.0 0.0 0.0 0.0 0.0 0.0 0.0 0.0 0.0
0.3 0.3 0.3 0.0 0.0 0.9 0.4 0.2 0.4 0.4 0.6 0.4 0.0 0.0 0.0 0.0 0.0 0.0 0.0 0.0 0.0 0.0
0.0 0.4 0.1 0.0 0.0 0.0 0.9 0.7 0.1 0.7 0.4 0.4 0.0 0.0 0.0 0.0 0.0 0.0 0.0 0.0 0.4 0.4
0.0 0.0 0.4 0.1 0.3 0.0 0.0 0.8 0.0 0.8 0.5 0.4 0.0 0.0 0.0 0.0 0.0 0.0 0.6 0.7 1.7 1.3
0.1 0.0 0.0 0.2 0.2 0.2 0.4 0.5 0.1 1.2 0.8 0.3 0.0 0.0 0.0 0.0 0.2 2.0 3.0 2.5 2.5 1.2
0.3 0.0 0.0 0.3 0.4 0.2 0.2 1.1 0.9 0.8 0.5 2.4 1.9 0.9 0.3 1.4 3.0 2.6 2.7 1.8 1.5 0.6
0.1 0.0 0.0 0.4 0.4 1.2 2.0 3.6 4.0 4.6 5.6 4.5 3.1 0.2 0.5 1.4 1.4 1.5 1.0 0.2 0.0 0.0
0.7 1.5 3.5 1.6 1.2 4.5 4.1 2.8 3.2 4.1 3.4 1.2 1.4 0.1 0.4 0.3 0.1 0.1 0.2 0.0 0.0 0.0
1.6 1.8 2.2 3.3 3.6 3.8 4.3 4.0 3.6 2.5 1.0 0.0 0.0 0.0 0.0 0.0 0.0 0.0 0.3 0.1 0.0 0.0

GFSNIL_prec_kuchsnow_255.txt.gz
Snowfall_Accumulation
0.0 0.0 0.0 0.0 0.0 0.0 0.0 0.0 0.0 0.0 0.0 0.0 0.0 0.0 0.0 0.0 0.0 0.0 0.0 0.0 0.0 0.0
0.3 0.4 0.4 0.0 0.0 0.0 0.0 0.0 0.0 0.0 0.0 0.0 0.0 0.0 0.0 0.0 0.0 0.0 0.0 0.0 0.0 0.0
0.6 0.7 0.6 0.6 0.0 0.0 0.2 0.0 0.0 0.0 0.0 0.0 0.0 0.0 0.0 0.0 0.0 0.0 0.0 0.0 0.0 0.0
0.3 0.1 0.6 0.5 0.2 0.1 0.0 0.0 0.3 0.0 0.0 0.0 0.0 0.0 0.0 0.0 0.0 0.0 0.0 0.0 0.0 0.0
0.9 0.6 0.1 0.5 0.4 0.2 0.0 0.0 0.0 0.6 0.0 0.0 0.0 0.0 0.0 0.0 0.0 0.0 0.0 0.0 0.0 0.0
0.7 0.9 0.4 0.0 0.0 0.4 0.3 0.0 0.6 0.8 1.1 0.0 0.0 0.0 0.0 0.0 0.0 0.0 0.0 0.0 0.0 0.0
0.3 0.3 0.3 0.0 0.0 0.9 0.4 0.2 0.4 0.4 0.6 0.4 0.0 0.0 0.2 0.0 0.0 0.0 0.0 0.0 0.0 0.0
0.0 0.4 0.1 0.0 0.0 0.0 0.9 0.7 0.1 0.7 0.4 0.4 0.0 0.0 0.5 0.0 0.0 0.0 0.0 0.0 0.4 0.4
0.0 0.0 0.4 0.1 0.3 0.0 0.0 0.8 0.0 0.8 0.5 0.4 0.0 0.0 0.0 0.0 0.0 0.0 0.6 0.7 1.7 1.3
0.1 0.0 0.0 0.2 0.2 0.2 0.4 0.5 0.1 1.2 0.8 0.3 0.0 0.0 0.1 0.0 0.2 2.0 3.0 2.5 2.5 1.2
0.3 0.0 0.0 0.3 0.4 0.2 0.2 1.1 1.0 0.8 0.5 2.4 1.9 0.9 0.5 1.4 3.0 2.6 2.7 1.8 1.5 0.6
0.1 0.1 0.0 0.5 0.4 1.2 2.1 3.6 4.0 4.6 5.6 4.5 3.1 0.2 0.7 1.6 1.4 1.5 1.0 0.2 0.0 0.0
0.7 1.7 3.7 1.7 1.2 4.6 4.2 2.9 3.2 4.3 3.4 1.2 1.8 0.1 0.6 0.5 0.1 0.1 0.2 0.0 0.0 0.0
1.7 2.0 2.5 3.4 3.7 3.9 4.6 4.4 4.0 3.0 1.0 0.8 0.4 0.3 0.1 0.0 0.0 0.0 0.3 0.1 0.0 0.0

GFSNIL_prec_kuchsnow_258.txt.gz
Snowfall_Accumulation
0.0 0.0 0.0 0.0 0.0 0.0 0.0 0.0 0.0 0.0 0.0 0.0 0.0 0.0 0.0 0.0 0.0 0.0 0.0 0.0 0.0 0.0
0.3 0.4 0.4 0.0 0.0 0.0 0.0 0.0 0.0 0.0 0.0 0.0 0.0 0.0 0.0 0.0 0.0 0.0 0.0 0.0 0.0 0.0
0.6 0.7 0.6 0.6 0.0 0.0 0.2 0.0 0.0 0.0 0.0 0.0 0.0 0.0 0.0 0.0 0.0 0.0 0.0 0.0 0.0 0.0
0.3 0.1 0.6 0.5 0.2 0.1 0.0 0.0 0.3 0.0 0.0 0.0 0.0 0.0 0.0 0.0 0.0 0.0 0.0 0.0 0.0 0.0
0.9 0.6 0.1 0.5 0.4 0.2 0.0 0.0 0.0 0.6 0.0 0.0 0.0 0.0 0.0 0.0 0.0 0.0 0.0 0.0 0.0 0.0
0.7 0.9 0.4 0.0 0.0 0.4 0.3 0.0 0.6 0.8 1.1 0.0 0.0 0.0 0.0 0.0 0.0 0.0 0.0 0.0 0.0 0.0
0.3 0.3 0.3 0.0 0.0 0.9 0.4 0.2 0.4 0.4 0.6 0.4 0.0 0.0 0.2 0.0 0.0 0.0 0.0 0.0 0.0 0.0
0.0 0.4 0.1 0.0 0.0 0.0 0.9 0.7 0.1 0.7 0.4 0.4 0.0 0.0 0.5 0.0 0.0 0.0 0.0 0.0 0.4 0.4
0.0 0.0 0.4 0.1 0.3 0.0 0.0 0.8 0.0 0.8 0.5 0.4 0.0 0.0 0.0 0.0 0.0 0.0 0.6 0.9 1.7 1.3
0.1 0.0 0.0 0.2 0.2 0.2 0.4 0.5 0.1 1.2 0.8 0.3 0.0 0.0 0.1 0.0 0.2 2.0 3.0 2.7 2.5 1.2
0.3 0.0 0.0 0.3 0.4 0.2 0.2 1.2 1.0 0.8 0.5 2.4 1.9 0.9 0.5 1.4 3.1 2.6 2.9 2.0 1.5 0.6
0.1 0.1 0.1 0.6 0.4 1.2 2.1 3.7 4.1 4.6 5.7 4.5 3.1 0.2 0.7 1.6 1.4 1.8 1.4 0.2 0.0 0.0
0.8 2.0 4.0 1.8 1.3 4.6 4.3 3.1 3.2 4.4 3.4 1.2 1.8 0.1 0.6 0.5 0.6 0.9 0.7 0.3 0.0 0.0
1.8 2.5 2.9 3.8 3.9 4.2 4.8 4.7 4.1 3.0 1.0 0.8 0.4 0.3 0.1 0.2 0.6 0.7 0.7 0.5 0.0 0.0

GFSNIL_prec_kuchsnow_261.txt.gz
Snowfall_Accumulation
0.0 0.0 0.0 0.0 0.0 0.0 0.0 0.0 0.0 0.0 0.0 0.0 0.0 0.0 0.0 0.0 0.0 0.0 0.0 0.0 0.0 0.0
0.3 0.4 0.4 0.0 0.0 0.0 0.0 0.0 0.0 0.0 0.0 0.0 0.0 0.0 0.0 0.0 0.0 0.0 0.0 0.0 0.0 0.0
0.6 0.7 0.6 0.6 0.0 0.0 0.2 0.0 0.0 0.0 0.0 0.0 0.0 0.0 0.0 0.0 0.0 0.0 0.0 0.0 0.0 0.0
0.3 0.1 0.6 0.5 0.2 0.1 0.0 0.0 0.3 0.0 0.0 0.0 0.0 0.0 0.0 0.0 0.0 0.0 0.0 0.0 0.0 0.0
0.9 0.6 0.1 0.5 0.4 0.2 0.0 0.0 0.0 0.6 0.0 0.0 0.0 0.0 0.0 0.0 0.0 0.0 0.0 0.0 0.0 0.0
0.7 0.9 0.4 0.0 0.0 0.4 0.3 0.0 0.6 0.8 1.1 0.0 0.0 0.0 0.0 0.0 0.0 0.0 0.0 0.0 0.0 0.0
0.3 0.3 0.3 0.0 0.0 0.9 0.4 0.2 0.4 0.4 0.6 0.4 0.0 0.0 0.2 0.0 0.0 0.0 0.0 0.0 0.0 0.0
0.0 0.4 0.1 0.0 0.0 0.0 0.9 0.7 0.1 0.7 0.4 0.4 0.0 0.0 0.5 0.0 0.0 0.0 0.0 0.0 0.4 0.4
0.0 0.0 0.4 0.1 0.3 0.0 0.0 0.8 0.0 0.8 0.5 0.4 0.0 0.0 0.1 0.0 0.0 0.0 0.6 0.9 1.7 1.3
0.1 0.0 0.0 0.2 0.2 0.2 0.4 0.5 0.1 1.2 0.8 0.3 0.0 0.0 0.1 0.0 0.2 2.0 3.0 2.7 2.5 1.2
0.3 0.0 0.0 0.3 0.4 0.2 0.2 1.2 1.1 0.9 0.5 2.4 1.9 0.9 0.5 1.4 3.1 2.7 2.9 2.0 1.5 0.6
0.1 0.1 0.2 0.6 0.4 1.2 2.1 3.8 4.2 4.6 5.7 4.5 3.1 0.2 0.7 1.6 1.4 1.8 1.4 0.2 0.0 0.0
0.8 2.1 4.3 2.0 1.5 4.7 4.5 3.4 3.4 4.5 3.5 1.2 1.8 0.1 0.6 0.5 0.6 1.0 0.7 0.4 0.0 0.0
1.9 2.8 3.5 4.5 4.3 4.7 5.5 5.1 4.4 3.2 1.1 0.8 0.4 0.3 0.1 0.2 0.6 0.8 0.8 0.6 0.0 0.0

GFSNIL_prec_kuchsnow_264.txt.gz
Snowfall_Accumulation
0.0 0.0 0.0 0.0 0.0 0.0 0.0 0.0 0.0 0.0 0.0 0.0 0.0 0.0 0.0 0.0 0.0 0.0 0.0 0.0 0.0 0.0
0.3 0.4 0.4 0.0 0.0 0.0 0.0 0.0 0.0 0.0 0.0 0.0 0.0 0.0 0.0 0.0 0.0 0.0 0.0 0.0 0.0 0.0
0.6 0.7 0.6 0.6 0.0 0.0 0.2 0.0 0.0 0.0 0.0 0.0 0.0 0.0 0.0 0.0 0.0 0.0 0.0 0.0 0.0 0.0
0.3 0.1 0.6 0.5 0.2 0.1 0.0 0.0 0.3 0.0 0.0 0.0 0.0 0.0 0.0 0.0 0.0 0.0 0.0 0.0 0.0 0.0
0.9 0.6 0.1 0.5 0.4 0.2 0.0 0.0 0.0 0.6 0.0 0.0 0.0 0.0 0.0 0.0 0.0 0.0 0.0 0.0 0.0 0.0
0.7 0.9 0.4 0.0 0.0 0.4 0.3 0.0 0.6 0.8 1.1 0.0 0.0 0.0 0.0 0.0 0.0 0.0 0.0 0.0 0.0 0.0
0.3 0.3 0.3 0.0 0.0 0.9 0.4 0.2 0.4 0.4 0.6 0.4 0.0 0.0 0.2 0.0 0.0 0.0 0.0 0.0 0.0 0.0
0.0 0.4 0.1 0.0 0.0 0.0 0.9 0.7 0.1 0.7 0.4 0.4 0.0 0.0 0.5 0.0 0.0 0.0 0.0 0.0 0.4 0.4
0.0 0.0 0.4 0.1 0.3 0.0 0.0 0.8 0.0 0.8 0.5 0.4 0.0 0.0 0.1 0.0 0.0 0.1 0.6 0.9 1.7 1.3
0.1 0.0 0.0 0.2 0.2 0.2 0.4 0.5 0.1 1.2 0.8 0.3 0.0 0.0 0.2 0.0 0.2 2.1 3.0 2.8 2.5 1.2
0.3 0.0 0.0 0.3 0.4 0.2 0.2 1.2 1.1 0.9 0.5 2.4 1.9 0.9 0.6 1.4 3.2 2.8 2.9 2.0 1.5 0.6
0.1 0.1 0.2 0.7 0.4 1.3 2.1 4.0 4.2 4.7 5.8 4.6 3.1 0.2 0.7 1.6 1.6 2.2 1.5 0.2 0.0 0.0
0.8 2.2 4.6 2.3 1.7 4.8 4.6 3.7 3.6 4.7 3.5 1.3 1.9 0.1 0.6 0.5 0.8 1.4 0.8 0.4 0.0 0.0
1.9 3.1 3.9 4.8 4.5 5.0 6.1 5.7 4.9 3.7 1.4 1.1 0.7 0.4 0.2 0.2 0.8 1.2 0.9 0.7 0.0 0.0

GFSNIL_prec_kuchsnow_267.txt.gz
Snowfall_Accumulation
0.0 0.0 0.0 0.0 0.0 0.0 0.0 0.0 0.0 0.0 0.0 0.0 0.0 0.0 0.0 0.0 0.0 0.0 0.0 0.0 0.0 0.0
0.3 0.4 0.4 0.0 0.0 0.0 0.0 0.0 0.0 0.0 0.0 0.0 0.0 0.0 0.0 0.0 0.0 0.0 0.0 0.0 0.0 0.0
0.6 0.7 0.6 0.6 0.0 0.0 0.2 0.0 0.0 0.0 0.0 0.0 0.0 0.0 0.0 0.0 0.0 0.0 0.0 0.0 0.0 0.0
0.3 0.1 0.6 0.5 0.2 0.1 0.0 0.0 0.3 0.0 0.0 0.0 0.0 0.0 0.0 0.0 0.0 0.0 0.0 0.0 0.0 0.0
0.9 0.6 0.1 0.5 0.4 0.2 0.0 0.0 0.0 0.6 0.0 0.0 0.0 0.0 0.0 0.0 0.0 0.0 0.0 0.0 0.0 0.0
0.7 0.9 0.4 0.0 0.0 0.4 0.3 0.0 0.6 0.8 1.1 0.0 0.0 0.0 0.0 0.0 0.0 0.0 0.0 0.0 0.0 0.0
0.3 0.3 0.3 0.0 0.0 0.9 0.4 0.2 0.4 0.4 0.6 0.4 0.0 0.0 0.2 0.0 0.0 0.0 0.0 0.0 0.0 0.0
0.0 0.4 0.1 0.0 0.0 0.0 0.9 0.7 0.1 0.7 0.4 0.4 0.0 0.0 0.5 0.0 0.0 0.0 0.0 0.0 0.4 0.4
0.0 0.0 0.4 0.1 0.3 0.0 0.0 0.8 0.0 0.8 0.5 0.4 0.0 0.0 0.1 0.0 0.1 0.3 0.8 0.9 1.7 1.3
0.1 0.0 0.0 0.2 0.2 0.2 0.4 0.5 0.1 1.2 0.8 0.3 0.0 0.0 0.2 0.0 0.3 2.4 3.3 2.9 2.5 1.3
0.3 0.0 0.0 0.3 0.4 0.2 0.2 1.2 1.1 0.9 0.5 2.4 1.9 1.0 0.6 1.4 3.3 3.3 3.2 2.1 1.5 0.7
0.1 0.1 0.2 0.7 0.4 1.3 2.2 4.1 4.3 4.7 5.9 4.8 3.2 0.2 0.7 1.7 2.4 2.9 1.7 0.3 0.0 0.0
0.8 2.2 4.8 2.3 1.8 5.0 4.8 4.1 3.8 4.9 3.5 1.5 2.4 0.3 0.7 0.7 1.8 2.4 1.0 0.4 0.0 0.0
1.9 3.1 4.1 5.2 4.7 5.2 6.4 6.0 5.0 3.7 1.4 1.5 1.6 1.4 0.4 0.4 1.8 2.1 1.1 0.7 0.0 0.1

GFSNIL_prec_kuchsnow_270.txt.gz
Snowfall_Accumulation
0.0 0.0 0.0 0.0 0.0 0.0 0.0 0.0 0.0 0.0 0.0 0.0 0.0 0.0 0.0 0.0 0.0 0.0 0.0 0.0 0.0 0.0
0.3 0.4 0.4 0.0 0.0 0.0 0.0 0.0 0.0 0.0 0.0 0.0 0.0 0.0 0.0 0.0 0.0 0.0 0.0 0.0 0.0 0.0
0.6 0.7 0.6 0.6 0.0 0.0 0.2 0.0 0.0 0.0 0.0 0.0 0.0 0.0 0.0 0.0 0.0 0.0 0.0 0.0 0.0 0.0
0.3 0.1 0.6 0.5 0.2 0.1 0.0 0.0 0.3 0.0 0.0 0.0 0.0 0.0 0.0 0.0 0.0 0.0 0.0 0.0 0.0 0.0
0.9 0.6 0.1 0.5 0.4 0.2 0.0 0.0 0.0 0.6 0.0 0.0 0.0 0.0 0.0 0.0 0.0 0.0 0.0 0.0 0.0 0.0
0.7 0.9 0.4 0.0 0.0 0.4 0.3 0.0 0.6 0.8 1.1 0.0 0.0 0.0 0.0 0.0 0.0 0.0 0.0 0.0 0.0 0.0
0.3 0.3 0.3 0.0 0.0 0.9 0.4 0.2 0.4 0.4 0.6 0.4 0.0 0.0 0.2 0.0 0.0 0.0 0.0 0.0 0.0 0.0
0.0 0.4 0.1 0.0 0.0 0.0 0.9 0.7 0.1 0.7 0.4 0.4 0.0 0.0 0.5 0.0 0.0 0.0 0.0 0.0 0.4 0.4
0.0 0.0 0.4 0.1 0.3 0.0 0.0 0.8 0.0 0.8 0.5 0.4 0.0 0.0 0.1 0.0 0.3 0.8 1.1 1.0 1.7 1.3
0.1 0.0 0.0 0.2 0.2 0.2 0.4 0.5 0.1 1.2 0.8 0.3 0.0 0.0 0.2 0.1 0.4 2.9 3.6 3.0 2.6 1.3
0.3 0.0 0.0 0.3 0.4 0.2 0.2 1.2 1.1 1.0 0.6 2.5 2.0 1.0 0.6 1.4 3.7 4.0 3.5 2.2 1.6 0.7
0.1 0.1 0.2 0.7 0.4 1.3 2.2 4.2 4.3 4.8 6.1 5.0 3.2 0.2 0.7 1.9 3.3 3.9 2.1 0.4 0.1 0.1
0.8 2.2 4.9 2.3 1.8 5.0 4.8 4.4 4.0 5.1 3.6 1.5 2.6 0.4 0.9 1.1 3.5 4.4 1.7 0.5 0.0 0.0
1.9 3.2 4.1 5.2 4.7 5.5 6.8 6.3 5.2 3.8 1.4 1.7 2.1 1.9 0.8 0.8 3.0 3.8 2.0 1.2 0.1 0.1

GFSNIL_prec_kuchsnow_273.txt.gz
Snowfall_Accumulation
0.0 0.0 0.0 0.0 0.0 0.0 0.0 0.0 0.0 0.0 0.0 0.0 0.0 0.0 0.0 0.0 0.0 0.0 0.0 0.0 0.0 0.0
0.3 0.4 0.4 0.0 0.0 0.0 0.0 0.0 0.0 0.0 0.0 0.0 0.0 0.0 0.0 0.0 0.0 0.0 0.0 0.0 0.0 0.0
0.6 0.7 0.6 0.6 0.0 0.0 0.2 0.0 0.0 0.0 0.0 0.0 0.0 0.0 0.0 0.0 0.0 0.0 0.0 0.0 0.0 0.0
0.3 0.1 0.6 0.5 0.2 0.1 0.0 0.0 0.3 0.0 0.0 0.0 0.0 0.0 0.0 0.0 0.0 0.0 0.0 0.0 0.0 0.0
0.9 0.6 0.1 0.5 0.4 0.2 0.0 0.0 0.0 0.6 0.0 0.0 0.0 0.0 0.0 0.0 0.0 0.0 0.0 0.0 0.0 0.0
0.7 0.9 0.4 0.0 0.0 0.4 0.3 0.0 0.6 0.8 1.1 0.0 0.0 0.0 0.0 0.0 0.0 0.0 0.0 0.0 0.0 0.0
0.3 0.3 0.3 0.0 0.0 0.9 0.4 0.2 0.4 0.4 0.6 0.4 0.0 0.0 0.2 0.0 0.0 0.0 0.0 0.0 0.0 0.0
0.0 0.4 0.1 0.0 0.0 0.0 0.9 0.7 0.1 0.7 0.4 0.4 0.0 0.0 0.5 0.1 0.2 0.1 0.0 0.0 0.4 0.4
0.0 0.0 0.4 0.1 0.3 0.0 0.0 0.8 0.0 0.8 0.5 0.4 0.0 0.0 0.1 0.1 0.9 1.5 1.6 1.2 1.7 1.3
0.1 0.0 0.0 0.2 0.2 0.2 0.4 0.5 0.1 1.2 0.8 0.3 0.0 0.0 0.2 0.2 1.0 3.7 4.0 3.1 2.7 1.4
0.3 0.0 0.0 0.3 0.4 0.2 0.2 1.2 1.1 1.0 0.6 2.5 2.1 1.1 0.7 1.6 4.1 4.7 3.9 2.3 1.7 0.8
0.1 0.1 0.2 0.7 0.4 1.3 2.2 4.2 4.3 5.0 6.4 5.4 3.5 0.2 0.8 2.0 4.1 4.6 2.4 0.4 0.1 0.1
0.8 2.2 4.9 2.3 1.8 5.0 4.9 4.7 4.2 5.3 3.7 1.9 3.0 0.5 0.9 1.4 4.5 5.6 2.2 0.5 0.0 0.0
1.9 3.2 4.1 5.2 4.7 5.5 7.0 6.5 5.2 4.0 1.7 1.7 2.6 2.5 1.1 1.1 3.9 4.9 2.7 1.5 0.4 0.3

GFSNIL_prec_kuchsnow_276.txt.gz
Snowfall_Accumulation
0.0 0.0 0.0 0.0 0.0 0.0 0.0 0.0 0.0 0.0 0.0 0.0 0.0 0.0 0.0 0.0 0.0 0.0 0.0 0.0 0.0 0.0
0.3 0.4 0.4 0.0 0.0 0.0 0.0 0.0 0.0 0.0 0.0 0.0 0.0 0.0 0.0 0.0 0.0 0.0 0.0 0.0 0.0 0.0
0.6 0.7 0.6 0.6 0.0 0.0 0.2 0.0 0.0 0.0 0.0 0.0 0.0 0.0 0.0 0.0 0.0 0.0 0.0 0.0 0.0 0.0
0.3 0.1 0.6 0.5 0.2 0.1 0.0 0.0 0.3 0.0 0.0 0.0 0.0 0.0 0.0 0.0 0.0 0.0 0.0 0.0 0.0 0.0
0.9 0.6 0.1 0.5 0.4 0.2 0.0 0.0 0.0 0.6 0.0 0.0 0.0 0.0 0.0 0.0 0.0 0.0 0.0 0.0 0.0 0.0
0.7 0.9 0.4 0.0 0.0 0.4 0.3 0.0 0.6 0.8 1.1 0.0 0.0 0.0 0.0 0.0 0.0 0.0 0.0 0.0 0.0 0.0
0.3 0.3 0.3 0.0 0.0 0.9 0.4 0.2 0.4 0.4 0.6 0.4 0.0 0.0 0.2 0.0 0.0 0.0 0.0 0.0 0.0 0.0
0.0 0.4 0.1 0.0 0.0 0.0 0.9 0.7 0.1 0.7 0.4 0.4 0.0 0.0 0.5 0.2 0.5 0.4 0.2 0.1 0.4 0.4
0.0 0.0 0.4 0.1 0.3 0.0 0.0 0.8 0.0 0.8 0.5 0.4 0.0 0.0 0.1 0.1 1.5 2.2 2.1 1.7 1.9 1.4
0.1 0.0 0.0 0.2 0.2 0.2 0.4 0.5 0.1 1.2 0.8 0.3 0.0 0.0 0.2 0.4 1.7 4.7 4.8 3.7 3.1 1.6
0.3 0.0 0.0 0.3 0.4 0.2 0.2 1.2 1.1 1.0 0.6 2.5 2.3 1.2 0.8 1.8 4.6 5.4 3.9 2.5 1.8 1.0
0.1 0.1 0.2 0.7 0.4 1.3 2.2 4.2 4.3 5.0 6.4 5.4 3.8 0.2 0.9 2.3 4.7 5.0 2.5 0.4 0.1 0.1
0.8 2.2 4.9 2.3 1.8 5.0 4.9 4.8 4.2 5.3 3.7 1.9 3.0 0.5 0.9 1.5 5.3 6.4 2.4 0.5 0.0 0.0
1.9 3.2 4.1 5.2 4.7 5.7 7.1 6.6 5.2 4.0 1.7 1.7 2.6 2.5 1.2 1.3 4.7 6.2 3.8 2.1 0.6 0.3

GFSNIL_prec_kuchsnow_279.txt.gz
Snowfall_Accumulation
0.0 0.0 0.0 0.0 0.0 0.0 0.0 0.0 0.0 0.0 0.0 0.0 0.0 0.0 0.0 0.0 0.0 0.0 0.0 0.0 0.0 0.0
0.3 0.4 0.4 0.0 0.0 0.0 0.0 0.0 0.0 0.0 0.0 0.0 0.0 0.0 0.0 0.0 0.0 0.0 0.0 0.0 0.0 0.0
0.6 0.7 0.6 0.6 0.0 0.0 0.2 0.0 0.0 0.0 0.0 0.0 0.0 0.0 0.0 0.0 0.0 0.0 0.0 0.0 0.0 0.0
0.3 0.1 0.6 0.5 0.2 0.1 0.0 0.0 0.3 0.0 0.0 0.0 0.0 0.0 0.0 0.0 0.0 0.0 0.0 0.0 0.0 0.0
0.9 0.6 0.1 0.5 0.4 0.2 0.0 0.0 0.0 0.6 0.0 0.0 0.0 0.0 0.0 0.0 0.0 0.0 0.0 0.0 0.0 0.0
0.7 0.9 0.4 0.0 0.0 0.4 0.3 0.0 0.6 0.8 1.1 0.0 0.0 0.0 0.0 0.0 0.0 0.0 0.0 0.0 0.0 0.0
0.3 0.3 0.3 0.0 0.0 0.9 0.4 0.2 0.4 0.4 0.6 0.4 0.0 0.0 0.2 0.0 0.0 0.0 0.0 0.0 0.0 0.0
0.0 0.4 0.1 0.0 0.0 0.0 0.9 0.7 0.1 0.7 0.4 0.4 0.0 0.0 0.5 0.3 1.0 0.9 0.5 0.2 0.5 0.4
0.0 0.0 0.4 0.1 0.3 0.0 0.0 0.8 0.0 0.8 0.5 0.4 0.0 0.0 0.2 0.2 1.8 2.6 2.5 2.0 2.2 1.5
0.1 0.0 0.0 0.2 0.2 0.2 0.4 0.5 0.1 1.2 0.8 0.3 0.0 0.0 0.3 0.5 2.0 5.3 5.2 3.9 3.3 1.8
0.3 0.0 0.0 0.3 0.4 0.2 0.2 1.2 1.1 1.0 0.6 2.5 2.3 1.2 0.8 1.9 5.0 5.7 4.0 2.5 1.8 1.0
0.1 0.1 0.2 0.7 0.4 1.3 2.2 4.2 4.3 5.0 6.4 5.4 3.8 0.2 1.0 2.5 5.3 5.3 2.5 0.4 0.1 0.1
0.8 2.2 4.9 2.3 1.8 5.0 4.9 4.9 4.2 5.3 3.7 1.9 3.0 0.5 0.9 1.5 5.6 6.9 2.6 0.6 0.1 0.1
1.9 3.2 4.1 5.2 4.7 5.8 7.3 6.6 5.2 4.0 1.7 1.7 2.6 2.5 1.2 1.3 5.0 7.1 4.8 2.6 0.6 0.3

GFSNIL_prec_kuchsnow_282.txt.gz
Snowfall_Accumulation
0.0 0.0 0.0 0.0 0.0 0.0 0.0 0.0 0.0 0.0 0.0 0.0 0.0 0.0 0.0 0.0 0.0 0.0 0.0 0.0 0.0 0.0
0.3 0.4 0.4 0.0 0.0 0.0 0.0 0.0 0.0 0.0 0.0 0.0 0.0 0.0 0.0 0.0 0.0 0.0 0.0 0.0 0.0 0.0
0.6 0.7 0.6 0.6 0.0 0.0 0.2 0.0 0.0 0.0 0.0 0.0 0.0 0.0 0.0 0.0 0.0 0.0 0.0 0.0 0.0 0.0
0.3 0.1 0.6 0.5 0.2 0.1 0.0 0.0 0.3 0.0 0.0 0.0 0.0 0.0 0.0 0.0 0.0 0.0 0.0 0.0 0.0 0.0
0.9 0.6 0.1 0.5 0.4 0.2 0.0 0.0 0.0 0.6 0.0 0.0 0.0 0.0 0.0 0.0 0.0 0.0 0.0 0.0 0.0 0.0
0.7 0.9 0.4 0.0 0.0 0.4 0.3 0.0 0.6 0.8 1.1 0.0 0.0 0.0 0.0 0.0 0.0 0.0 0.0 0.0 0.0 0.0
0.3 0.3 0.3 0.0 0.0 0.9 0.4 0.2 0.4 0.4 0.6 0.4 0.0 0.0 0.2 0.0 0.0 0.0 0.0 0.0 0.0 0.0
0.0 0.4 0.1 0.0 0.0 0.0 0.9 0.7 0.1 0.7 0.4 0.4 0.0 0.0 0.5 0.3 1.1 1.1 0.6 0.3 0.6 0.6
0.0 0.0 0.4 0.1 0.3 0.0 0.0 0.8 0.0 0.8 0.5 0.4 0.0 0.0 0.2 0.3 2.2 3.0 2.8 2.0 2.2 1.6
0.1 0.0 0.0 0.2 0.2 0.2 0.4 0.5 0.1 1.2 0.8 0.3 0.0 0.0 0.3 0.5 2.0 5.4 5.4 4.1 3.4 1.9
0.3 0.0 0.0 0.3 0.4 0.2 0.2 1.2 1.1 1.0 0.6 2.5 2.3 1.2 0.8 1.9 5.1 5.8 4.1 2.5 1.8 1.0
0.1 0.1 0.2 0.7 0.4 1.3 2.2 4.2 4.3 5.0 6.4 5.4 3.8 0.2 1.0 2.7 5.8 5.5 2.6 0.4 0.1 0.1
0.8 2.2 4.9 2.3 1.8 5.0 4.9 4.9 4.2 5.3 3.7 1.9 3.0 0.5 0.9 1.6 5.9 7.5 2.8 0.7 0.1 0.1
1.9 3.2 4.1 5.2 4.7 5.8 7.3 6.6 5.2 4.0 1.7 1.7 2.6 2.5 1.3 1.3 5.4 7.7 5.5 2.8 0.7 0.4

GFSNIL_prec_kuchsnow_285.txt.gz
Snowfall_Accumulation
0.0 0.0 0.0 0.0 0.0 0.0 0.0 0.0 0.0 0.0 0.0 0.0 0.0 0.0 0.0 0.0 0.0 0.0 0.0 0.0 0.0 0.0
0.3 0.4 0.4 0.0 0.0 0.0 0.0 0.0 0.0 0.0 0.0 0.0 0.0 0.0 0.0 0.0 0.0 0.0 0.0 0.0 0.0 0.0
0.6 0.7 0.6 0.6 0.0 0.0 0.2 0.0 0.0 0.0 0.0 0.0 0.0 0.0 0.0 0.0 0.0 0.0 0.0 0.0 0.0 0.0
0.3 0.1 0.6 0.5 0.2 0.1 0.0 0.0 0.3 0.0 0.0 0.0 0.0 0.0 0.0 0.0 0.0 0.0 0.0 0.0 0.0 0.0
0.9 0.6 0.1 0.5 0.4 0.2 0.0 0.0 0.0 0.6 0.0 0.0 0.0 0.0 0.0 0.0 0.0 0.0 0.0 0.0 0.0 0.0
0.7 0.9 0.4 0.0 0.0 0.4 0.3 0.0 0.6 0.8 1.1 0.0 0.0 0.0 0.0 0.0 0.0 0.0 0.0 0.0 0.0 0.0
0.3 0.3 0.3 0.0 0.0 0.9 0.4 0.2 0.4 0.4 0.6 0.4 0.0 0.0 0.2 0.0 0.0 0.0 0.0 0.0 0.0 0.0
0.0 0.4 0.1 0.0 0.0 0.0 0.9 0.7 0.1 0.7 0.4 0.4 0.0 0.0 0.5 0.3 1.1 1.1 0.6 0.3 0.7 0.7
0.0 0.0 0.4 0.1 0.3 0.0 0.0 0.8 0.0 0.8 0.5 0.4 0.0 0.0 0.2 0.3 2.5 3.3 3.0 2.0 2.2 1.6
0.1 0.0 0.0 0.2 0.2 0.2 0.4 0.5 0.1 1.2 0.8 0.3 0.0 0.0 0.3 0.5 2.2 5.6 5.4 4.1 3.4 1.9
0.3 0.0 0.0 0.3 0.4 0.2 0.2 1.2 1.1 1.0 0.6 2.5 2.3 1.2 0.8 1.9 5.1 5.8 4.1 2.5 1.8 1.1
0.1 0.1 0.2 0.7 0.4 1.3 2.2 4.2 4.3 5.0 6.4 5.4 3.8 0.2 1.1 2.7 6.0 5.7 2.6 0.5 0.2 0.2
0.8 2.2 4.9 2.3 1.8 5.0 4.9 4.9 4.2 5.3 3.7 1.9 3.0 0.5 1.0 1.6 6.0 7.8 3.1 0.7 0.2 0.1
1.9 3.2 4.1 5.2 4.7 5.8 7.3 6.6 5.2 4.0 1.7 1.7 2.6 2.5 1.3 1.3 5.4 8.2 6.1 3.1 0.8 0.4

GFSNIL_prec_kuchsnow_288.txt.gz
Snowfall_Accumulation
0.0 0.0 0.0 0.0 0.0 0.0 0.0 0.0 0.0 0.0 0.0 0.0 0.0 0.0 0.0 0.0 0.0 0.0 0.0 0.0 0.0 0.0
0.3 0.4 0.4 0.0 0.0 0.0 0.0 0.0 0.0 0.0 0.0 0.0 0.0 0.0 0.0 0.0 0.0 0.0 0.0 0.0 0.0 0.0
0.6 0.7 0.6 0.6 0.0 0.0 0.2 0.0 0.0 0.0 0.0 0.0 0.0 0.0 0.0 0.0 0.0 0.0 0.0 0.0 0.0 0.0
0.3 0.1 0.6 0.5 0.2 0.1 0.0 0.0 0.3 0.0 0.0 0.0 0.0 0.0 0.0 0.0 0.0 0.0 0.0 0.0 0.0 0.0
0.9 0.6 0.1 0.5 0.4 0.2 0.0 0.0 0.0 0.6 0.0 0.0 0.0 0.0 0.0 0.0 0.0 0.0 0.0 0.0 0.0 0.0
0.7 0.9 0.4 0.0 0.0 0.4 0.3 0.0 0.6 0.8 1.1 0.0 0.0 0.0 0.0 0.0 0.0 0.0 0.0 0.0 0.0 0.0
0.3 0.3 0.3 0.0 0.0 0.9 0.4 0.2 0.4 0.4 0.6 0.4 0.0 0.0 0.2 0.0 0.0 0.0 0.0 0.0 0.0 0.0
0.0 0.4 0.1 0.0 0.0 0.0 0.9 0.7 0.1 0.7 0.4 0.4 0.0 0.0 0.5 0.3 1.1 1.1 0.7 0.3 0.7 0.7
0.0 0.0 0.4 0.1 0.3 0.0 0.0 0.8 0.0 0.8 0.5 0.4 0.0 0.0 0.2 0.3 2.6 3.5 3.0 2.0 2.2 1.6
0.1 0.0 0.0 0.2 0.2 0.2 0.4 0.5 0.1 1.2 0.8 0.3 0.0 0.0 0.3 0.5 2.2 5.6 5.4 4.1 3.4 1.9
0.3 0.0 0.0 0.3 0.4 0.2 0.2 1.2 1.1 1.0 0.6 2.5 2.3 1.2 0.8 1.9 5.1 5.9 4.1 2.5 1.8 1.1
0.1 0.1 0.2 0.7 0.4 1.3 2.2 4.2 4.3 5.0 6.4 5.4 3.8 0.2 1.1 2.7 6.0 5.7 2.6 0.5 0.2 0.2
0.8 2.2 4.9 2.3 1.8 5.0 4.9 4.9 4.2 5.3 3.7 1.9 3.0 0.5 1.0 1.7 6.0 7.9 3.1 0.9 0.2 0.1
1.9 3.2 4.1 5.2 4.7 5.8 7.3 6.6 5.2 4.0 1.7 1.7 2.6 2.5 1.3 1.3 5.4 8.2 6.8 3.3 0.8 0.4

GFSNIL_prec_kuchsnow_291.txt.gz
Snowfall_Accumulation
0.0 0.0 0.0 0.0 0.0 0.0 0.0 0.0 0.0 0.0 0.0 0.0 0.0 0.0 0.0 0.0 0.0 0.0 0.0 0.0 0.0 0.0
0.3 0.4 0.4 0.0 0.0 0.0 0.0 0.0 0.0 0.0 0.0 0.0 0.0 0.0 0.0 0.0 0.0 0.0 0.0 0.0 0.0 0.0
0.6 0.7 0.6 0.6 0.0 0.0 0.2 0.0 0.0 0.0 0.0 0.0 0.0 0.0 0.0 0.0 0.0 0.0 0.0 0.0 0.0 0.0
0.3 0.1 0.6 0.5 0.2 0.1 0.0 0.0 0.3 0.0 0.0 0.0 0.0 0.0 0.0 0.0 0.0 0.0 0.0 0.0 0.0 0.0
0.9 0.6 0.1 0.5 0.4 0.2 0.0 0.0 0.0 0.6 0.0 0.0 0.0 0.0 0.0 0.0 0.0 0.0 0.0 0.0 0.0 0.0
0.7 0.9 0.4 0.0 0.0 0.4 0.3 0.0 0.6 0.8 1.1 0.0 0.0 0.0 0.0 0.0 0.0 0.0 0.0 0.0 0.0 0.0
0.3 0.3 0.3 0.0 0.0 0.9 0.4 0.2 0.4 0.4 0.6 0.4 0.0 0.0 0.2 0.0 0.0 0.0 0.0 0.0 0.0 0.0
0.1 0.4 0.1 0.0 0.0 0.0 0.9 0.7 0.1 0.7 0.4 0.4 0.0 0.0 0.5 0.3 1.1 1.1 0.7 0.3 0.7 0.7
0.0 0.0 0.4 0.1 0.3 0.0 0.0 0.8 0.0 0.8 0.5 0.4 0.0 0.0 0.2 0.3 2.6 3.5 3.0 2.0 2.2 1.6
0.2 0.0 0.0 0.2 0.2 0.2 0.4 0.5 0.1 1.2 0.8 0.3 0.0 0.0 0.4 0.5 2.2 5.6 5.4 4.1 3.4 1.9
0.3 0.0 0.0 0.3 0.4 0.2 0.2 1.2 1.1 1.0 0.6 2.5 2.3 1.2 0.8 1.9 5.1 5.9 4.1 2.5 1.8 1.1
0.1 0.1 0.2 0.7 0.4 1.3 2.2 4.2 4.3 5.0 6.4 5.4 3.8 0.2 1.1 2.7 6.0 5.7 2.6 0.5 0.2 0.2
0.8 2.2 4.9 2.3 1.8 5.0 4.9 4.9 4.2 5.3 3.7 1.9 3.0 0.5 1.0 1.7 6.0 7.9 3.1 0.9 0.4 0.1
1.9 3.2 4.1 5.2 4.7 5.8 7.3 6.6 5.2 4.0 1.7 1.7 2.6 2.5 1.3 1.3 5.4 8.2 7.4 3.6 0.8 0.4

GFSNIL_prec_kuchsnow_294.txt.gz
Snowfall_Accumulation
0.0 0.0 0.0 0.0 0.0 0.0 0.0 0.0 0.0 0.0 0.0 0.0 0.0 0.0 0.0 0.0 0.0 0.0 0.0 0.0 0.0 0.0
0.3 0.4 0.4 0.0 0.0 0.0 0.0 0.0 0.0 0.0 0.0 0.0 0.0 0.0 0.0 0.0 0.0 0.0 0.0 0.0 0.0 0.0
0.6 0.7 0.6 0.6 0.0 0.0 0.2 0.0 0.0 0.0 0.0 0.0 0.0 0.0 0.0 0.0 0.0 0.0 0.0 0.0 0.0 0.0
0.3 0.1 0.6 0.5 0.2 0.1 0.0 0.0 0.3 0.0 0.0 0.0 0.0 0.0 0.0 0.0 0.0 0.0 0.0 0.0 0.0 0.0
0.9 0.6 0.1 0.5 0.4 0.2 0.0 0.0 0.0 0.6 0.0 0.0 0.0 0.0 0.0 0.0 0.0 0.0 0.0 0.0 0.0 0.0
0.7 0.9 0.4 0.0 0.0 0.4 0.4 0.0 0.6 0.8 1.1 0.0 0.0 0.0 0.0 0.0 0.0 0.0 0.0 0.0 0.0 0.0
0.3 0.4 0.3 0.1 0.1 0.9 0.4 0.2 0.4 0.4 0.6 0.4 0.0 0.0 0.2 0.0 0.0 0.0 0.0 0.0 0.0 0.0
0.2 0.6 0.3 0.1 0.0 0.0 0.9 0.7 0.1 0.7 0.4 0.4 0.0 0.0 0.5 0.3 1.1 1.1 0.7 0.3 0.7 0.7
0.7 0.3 0.5 0.1 0.3 0.0 0.0 0.8 0.0 0.8 0.5 0.4 0.0 0.0 0.2 0.3 2.6 3.5 3.0 2.0 2.2 1.6
0.4 0.1 0.0 0.2 0.2 0.2 0.4 0.5 0.1 1.2 0.8 0.3 0.0 0.0 0.4 0.5 2.2 5.6 5.4 4.1 3.4 1.9
0.5 0.1 0.0 0.3 0.4 0.2 0.2 1.2 1.1 1.0 0.6 2.5 2.3 1.2 0.8 2.0 5.1 5.9 4.1 2.5 1.8 1.1
0.2 0.2 0.2 0.7 0.4 1.3 2.2 4.2 4.3 5.0 6.4 5.4 3.8 0.2 1.1 2.7 6.0 5.7 2.6 0.5 0.2 0.2
0.9 2.2 4.9 2.3 1.8 5.0 4.9 4.9 4.2 5.3 3.7 1.9 3.0 0.5 1.0 1.7 6.0 7.9 3.1 0.9 0.4 0.1
1.9 3.2 4.1 5.2 4.7 5.8 7.3 6.6 5.2 4.0 1.7 1.7 2.6 2.5 1.3 1.4 5.4 8.2 8.0 3.6 0.8 0.4

GFSNIL_prec_kuchsnow_297.txt.gz
Snowfall_Accumulation
0.0 0.0 0.0 0.0 0.0 0.0 0.0 0.0 0.0 0.0 0.0 0.0 0.0 0.0 0.0 0.0 0.0 0.0 0.0 0.0 0.0 0.0
0.3 0.4 0.4 0.0 0.0 0.0 0.0 0.0 0.0 0.0 0.0 0.0 0.0 0.0 0.0 0.0 0.0 0.0 0.0 0.0 0.0 0.0
0.6 0.7 0.6 0.6 0.0 0.0 0.2 0.0 0.0 0.0 0.0 0.0 0.0 0.0 0.0 0.0 0.0 0.0 0.0 0.0 0.0 0.0
0.3 0.1 0.6 0.5 0.2 0.1 0.0 0.0 0.3 0.0 0.0 0.0 0.0 0.0 0.0 0.0 0.0 0.0 0.0 0.0 0.0 0.0
0.9 0.6 0.1 0.5 0.4 0.2 0.0 0.0 0.0 0.6 0.0 0.0 0.0 0.0 0.0 0.0 0.0 0.0 0.0 0.0 0.0 0.0
0.7 0.9 0.4 0.0 0.0 0.4 0.4 0.0 0.6 1.0 1.2 0.0 0.0 0.0 0.0 0.0 0.0 0.0 0.0 0.0 0.0 0.0
0.3 0.4 0.3 0.1 0.1 0.9 0.4 0.5 0.6 0.4 0.6 0.4 0.0 0.0 0.2 0.0 0.0 0.0 0.0 0.0 0.0 0.0
0.4 0.9 0.8 0.9 0.8 0.4 1.0 0.7 0.1 0.7 0.4 0.4 0.0 0.0 0.5 0.3 1.1 1.1 0.7 0.3 0.7 0.7
1.2 0.3 1.5 0.7 0.5 0.1 0.1 0.8 0.0 0.8 0.5 0.4 0.0 0.0 0.2 0.3 2.6 3.5 3.0 2.0 2.2 1.6
1.3 0.7 0.3 0.3 0.3 0.2 0.4 0.5 0.1 1.2 0.8 0.3 0.0 0.0 0.4 0.5 2.2 5.6 5.4 4.1 3.4 1.9
0.7 0.1 0.0 0.3 0.4 0.2 0.2 1.2 1.1 1.0 0.6 2.5 2.3 1.2 0.8 2.0 5.1 5.9 4.1 2.5 1.8 1.1
0.2 0.2 0.3 0.8 0.5 1.3 2.2 4.2 4.3 5.0 6.4 5.4 3.8 0.2 1.1 2.7 6.0 5.7 2.6 0.5 0.2 0.2
1.1 2.4 4.9 2.3 1.8 5.0 4.9 4.9 4.2 5.3 3.7 1.9 3.0 0.5 1.0 1.7 6.0 7.9 3.1 1.0 0.4 0.1
1.9 3.2 4.1 5.2 4.7 5.8 7.3 6.6 5.2 4.0 1.7 1.7 2.6 2.5 1.3 1.4 5.4 8.2 8.5 3.6 0.8 0.4

GFSNIL_prec_kuchsnow_300.txt.gz
Snowfall_Accumulation
0.0 0.0 0.0 0.0 0.0 0.0 0.0 0.0 0.0 0.0 0.0 0.0 0.0 0.0 0.0 0.0 0.0 0.0 0.0 0.0 0.0 0.0
0.3 0.4 0.4 0.0 0.0 0.0 0.0 0.0 0.0 0.0 0.0 0.0 0.0 0.0 0.0 0.0 0.0 0.0 0.0 0.0 0.0 0.0
0.6 0.7 0.6 0.6 0.0 0.0 0.2 0.0 0.0 0.0 0.0 0.0 0.0 0.0 0.0 0.0 0.0 0.0 0.0 0.0 0.0 0.0
0.3 0.1 0.6 0.5 0.2 0.1 0.0 0.0 0.3 0.0 0.0 0.0 0.0 0.0 0.0 0.0 0.0 0.0 0.0 0.0 0.0 0.0
0.9 0.6 0.1 0.5 0.4 0.2 0.0 0.0 0.0 0.6 0.0 0.0 0.0 0.0 0.0 0.0 0.0 0.0 0.0 0.0 0.0 0.0
0.7 0.9 0.4 0.0 0.0 0.4 0.4 0.0 0.6 1.0 1.2 0.0 0.0 0.0 0.0 0.0 0.0 0.0 0.0 0.0 0.0 0.0
0.3 0.4 0.3 0.1 0.1 0.9 0.4 0.5 0.6 0.4 0.8 0.5 0.1 0.0 0.2 0.0 0.0 0.0 0.0 0.0 0.0 0.0
0.5 1.0 0.9 1.0 1.1 0.8 1.4 1.1 0.4 0.8 0.4 0.4 0.0 0.0 0.5 0.3 1.1 1.1 0.7 0.3 0.7 0.7
1.4 0.5 1.5 1.6 1.4 0.7 0.4 1.0 0.0 0.8 0.5 0.4 0.0 0.0 0.2 0.3 2.6 3.5 3.0 2.0 2.2 1.6
1.7 1.2 0.9 0.8 0.6 0.4 0.4 0.5 0.1 1.2 0.8 0.3 0.0 0.0 0.4 0.5 2.2 5.6 5.4 4.1 3.4 1.9
1.3 0.6 0.4 0.6 0.4 0.2 0.2 1.2 1.1 1.0 0.6 2.5 2.3 1.2 0.8 2.0 5.1 5.9 4.1 2.5 1.8 1.1
0.7 0.5 0.5 0.8 0.5 1.5 2.3 4.3 4.3 5.0 6.4 5.4 3.8 0.2 1.1 2.7 6.0 5.7 2.6 0.5 0.2 0.2
1.3 2.5 5.1 2.5 2.0 5.0 4.9 4.9 4.2 5.3 3.7 1.9 3.0 0.5 1.0 1.7 6.0 7.9 3.1 1.0 0.4 0.1
2.0 3.2 4.2 5.2 4.7 5.8 7.3 6.6 5.2 4.0 1.7 1.7 2.6 2.5 1.3 1.4 5.4 8.2 8.8 3.6 0.8 0.4

GFSNIL_prec_kuchsnow_303.txt.gz
Snowfall_Accumulation
0.0 0.0 0.0 0.0 0.0 0.0 0.0 0.0 0.0 0.0 0.0 0.0 0.0 0.0 0.0 0.0 0.0 0.0 0.0 0.0 0.0 0.0
0.3 0.4 0.4 0.0 0.0 0.0 0.0 0.0 0.0 0.0 0.0 0.0 0.0 0.0 0.0 0.0 0.0 0.0 0.0 0.0 0.0 0.0
0.6 0.7 0.6 0.6 0.0 0.0 0.2 0.0 0.0 0.0 0.0 0.0 0.0 0.0 0.0 0.0 0.0 0.0 0.0 0.0 0.0 0.0
0.3 0.1 0.6 0.5 0.2 0.1 0.0 0.0 0.3 0.0 0.0 0.0 0.0 0.0 0.0 0.0 0.0 0.0 0.0 0.0 0.0 0.0
0.9 0.6 0.1 0.5 0.4 0.2 0.0 0.0 0.0 0.6 0.0 0.0 0.0 0.0 0.0 0.0 0.0 0.0 0.0 0.0 0.0 0.0
0.7 0.9 0.4 0.0 0.0 0.4 0.4 0.0 0.6 1.0 1.2 0.0 0.0 0.0 0.0 0.0 0.0 0.0 0.0 0.0 0.0 0.0
0.4 0.5 0.5 0.2 0.1 0.9 0.4 0.5 0.6 0.4 0.8 0.5 0.1 0.0 0.2 0.0 0.0 0.0 0.0 0.0 0.0 0.0
0.5 1.2 1.1 1.3 1.3 1.0 1.6 1.3 0.6 1.0 0.4 0.4 0.0 0.0 0.5 0.3 1.1 1.1 0.7 0.3 0.7 0.7
1.8 0.8 1.8 2.0 1.9 1.2 0.9 1.5 0.3 0.9 0.5 0.4 0.0 0.0 0.2 0.3 2.6 3.5 3.0 2.0 2.2 1.6
1.9 1.4 1.3 1.3 1.2 1.0 0.9 0.7 0.2 1.2 0.8 0.4 0.0 0.0 0.4 0.5 2.2 5.6 5.4 4.1 3.4 1.9
1.7 1.0 0.8 1.0 0.9 0.6 0.4 1.4 1.4 1.2 0.6 2.5 2.3 1.2 0.8 2.0 5.1 5.9 4.1 2.5 1.8 1.1
1.0 0.8 0.9 1.2 0.9 2.1 2.9 4.8 4.5 5.0 6.4 5.4 3.8 0.2 1.1 2.7 6.0 5.7 2.6 0.5 0.2 0.2
1.8 3.0 5.6 3.0 2.5 5.3 5.1 5.0 4.2 5.3 3.7 1.9 3.0 0.5 1.0 1.7 6.0 7.9 3.1 1.0 0.4 0.1
2.5 3.7 4.5 5.6 4.9 5.9 7.3 6.6 5.2 4.0 1.7 1.7 2.6 2.5 1.3 1.4 5.4 8.2 9.0 3.6 0.8 0.4

GFSNIL_prec_kuchsnow_306.txt.gz
Snowfall_Accumulation
0.0 0.0 0.0 0.0 0.0 0.0 0.0 0.0 0.0 0.0 0.0 0.0 0.0 0.0 0.0 0.0 0.0 0.0 0.0 0.0 0.0 0.0
0.3 0.4 0.4 0.0 0.0 0.0 0.0 0.0 0.0 0.0 0.0 0.0 0.0 0.0 0.0 0.0 0.0 0.0 0.0 0.0 0.0 0.0
0.6 0.7 0.6 0.6 0.0 0.0 0.2 0.0 0.0 0.0 0.0 0.0 0.0 0.0 0.0 0.0 0.0 0.0 0.0 0.0 0.0 0.0
0.3 0.1 0.6 0.5 0.2 0.1 0.0 0.0 0.3 0.0 0.0 0.0 0.0 0.0 0.0 0.0 0.0 0.0 0.0 0.0 0.0 0.0
0.9 0.6 0.1 0.5 0.4 0.2 0.0 0.0 0.0 0.6 0.0 0.0 0.0 0.0 0.0 0.0 0.0 0.0 0.0 0.0 0.0 0.0
0.7 0.9 0.4 0.0 0.0 0.4 0.4 0.0 0.6 1.0 1.2 0.0 0.0 0.0 0.0 0.0 0.0 0.0 0.0 0.0 0.0 0.0
0.4 0.5 0.5 0.3 0.2 1.0 0.4 0.5 0.6 0.4 0.8 0.5 0.1 0.0 0.2 0.0 0.0 0.0 0.0 0.0 0.0 0.0
0.5 1.2 1.2 1.3 1.3 1.0 1.8 1.3 0.7 1.1 0.5 0.4 0.0 0.0 0.5 0.3 1.1 1.1 0.7 0.3 0.7 0.7
1.9 1.0 2.0 2.4 2.4 1.7 1.4 1.9 0.6 1.1 0.7 0.4 0.0 0.0 0.3 0.4 2.6 3.5 3.0 2.0 2.2 1.6
2.7 2.0 1.9 2.1 1.8 1.6 1.3 1.0 0.5 1.4 1.0 0.6 0.2 0.1 0.4 0.5 2.2 5.6 5.4 4.1 3.4 1.9
2.3 1.5 1.3 1.5 1.4 1.1 0.9 2.0 2.1 1.8 1.1 2.8 2.3 1.2 0.9 2.0 5.1 5.9 4.1 2.5 1.8 1.1
1.5 1.3 1.4 1.7 1.5 2.7 3.6 5.4 5.0 5.4 6.8 5.6 3.8 0.2 1.1 2.7 6.0 5.7 2.6 0.5 0.2 0.2
2.2 3.5 6.1 3.5 2.9 5.8 5.5 5.5 4.7 5.6 3.9 1.9 3.0 0.5 1.0 1.7 6.0 8.0 3.1 1.0 0.4 0.1
2.9 4.1 4.9 6.0 5.3 6.3 7.8 6.9 5.4 4.1 1.7 1.7 2.6 2.5 1.3 1.4 5.4 8.3 9.0 3.7 0.8 0.4

GFSNIL_prec_kuchsnow_309.txt.gz
Snowfall_Accumulation
0.0 0.0 0.0 0.0 0.0 0.0 0.0 0.1 0.0 0.0 0.0 0.0 0.0 0.0 0.0 0.0 0.0 0.0 0.0 0.0 0.0 0.0
0.3 0.4 0.4 0.0 0.0 0.0 0.1 0.1 0.0 0.0 0.0 0.0 0.0 0.0 0.0 0.0 0.0 0.0 0.0 0.0 0.0 0.0
0.6 0.7 0.6 0.6 0.0 0.1 0.2 0.0 0.0 0.0 0.0 0.0 0.0 0.0 0.0 0.0 0.0 0.0 0.0 0.0 0.0 0.0
0.3 0.1 0.6 0.5 0.2 0.2 0.0 0.0 0.3 0.0 0.0 0.0 0.0 0.0 0.0 0.0 0.0 0.0 0.0 0.0 0.0 0.0
0.9 0.6 0.1 0.5 0.4 0.2 0.0 0.0 0.0 0.6 0.0 0.0 0.0 0.0 0.0 0.0 0.0 0.0 0.0 0.0 0.0 0.0
0.7 0.9 0.4 0.0 0.0 0.4 0.4 0.0 0.6 1.0 1.2 0.0 0.0 0.0 0.0 0.0 0.0 0.0 0.0 0.0 0.0 0.0
0.4 0.5 0.5 0.3 0.2 1.0 0.4 0.5 0.6 0.4 0.8 0.5 0.1 0.0 0.2 0.0 0.0 0.0 0.0 0.0 0.0 0.0
0.5 1.2 1.2 1.5 1.5 1.1 1.8 1.3 0.7 1.1 0.5 0.4 0.0 0.0 0.5 0.3 1.1 1.1 0.7 0.3 0.7 0.7
2.3 1.4 2.4 2.8 2.7 1.8 1.6 1.9 0.6 1.1 0.7 0.4 0.0 0.0 0.3 0.4 2.6 3.5 3.0 2.0 2.2 1.6
3.4 2.6 2.7 2.9 2.6 2.1 1.6 1.3 0.7 1.6 1.1 0.8 0.2 0.3 0.6 0.7 2.4 5.7 5.4 4.1 3.4 1.9
2.7 1.9 1.7 1.9 1.8 1.4 1.3 2.4 2.4 2.2 1.5 3.2 2.6 1.5 1.1 2.2 5.3 6.0 4.1 2.5 1.8 1.1
1.9 1.6 1.8 2.1 1.9 3.1 4.0 5.9 5.5 5.9 7.2 6.0 4.2 0.5 1.3 2.9 6.1 5.8 2.6 0.5 0.2 0.2
2.6 3.9 6.6 4.0 3.4 6.2 5.9 5.9 5.1 6.1 4.4 2.4 3.3 0.7 1.0 1.7 6.1 8.1 3.1 1.0 0.4 0.1
3.3 4.5 5.4 6.4 5.7 6.7 8.1 7.2 5.7 4.4 1.9 1.8 2.6 2.5 1.3 1.4 5.5 8.3 9.1 3.7 0.8 0.4

GFSNIL_prec_kuchsnow_312.txt.gz
Snowfall_Accumulation
0.0 0.0 0.0 0.0 0.0 0.0 0.0 0.1 0.0 0.0 0.0 0.0 0.0 0.0 0.0 0.0 0.0 0.0 0.0 0.0 0.0 0.0
0.3 0.4 0.4 0.0 0.0 0.0 0.1 0.1 0.1 0.1 0.0 0.0 0.0 0.0 0.0 0.0 0.0 0.0 0.0 0.0 0.0 0.0
0.6 0.7 0.6 0.6 0.0 0.1 0.2 0.1 0.1 0.0 0.0 0.0 0.0 0.0 0.0 0.0 0.0 0.0 0.0 0.0 0.0 0.0
0.3 0.1 0.6 0.5 0.2 0.2 0.1 0.0 0.3 0.0 0.0 0.0 0.0 0.0 0.0 0.0 0.0 0.0 0.0 0.0 0.0 0.0
0.9 0.6 0.1 0.5 0.4 0.2 0.0 0.0 0.0 0.6 0.0 0.0 0.0 0.0 0.0 0.0 0.0 0.0 0.0 0.0 0.0 0.0
0.7 0.9 0.4 0.0 0.0 0.4 0.4 0.0 0.6 1.0 1.2 0.1 0.0 0.0 0.0 0.0 0.0 0.0 0.0 0.0 0.0 0.0
0.4 0.5 0.5 0.3 0.2 1.0 0.4 0.5 0.6 0.4 1.0 0.5 0.1 0.0 0.2 0.0 0.0 0.0 0.0 0.0 0.0 0.0
0.5 1.2 1.2 1.5 1.5 1.1 1.8 1.5 0.9 1.1 0.5 0.4 0.0 0.0 0.5 0.3 1.1 1.1 0.7 0.3 0.7 0.7
2.3 1.4 2.4 2.8 3.1 2.3 1.9 2.1 0.6 1.1 0.7 0.4 0.0 0.0 0.3 0.4 2.6 3.5 3.0 2.0 2.2 1.6
3.7 3.1 3.2 3.4 3.1 2.6 2.1 1.6 0.9 1.7 1.2 0.8 0.2 0.3 0.6 0.7 2.4 5.7 5.4 4.1 3.4 1.9
3.0 2.3 2.1 2.3 2.1 1.8 1.6 2.7 2.7 2.6 1.9 3.5 2.8 1.7 1.3 2.4 5.7 6.3 4.3 2.5 1.8 1.1
2.1 1.9 2.0 2.4 2.2 3.4 4.3 6.2 5.8 6.1 7.5 6.4 4.5 0.8 1.6 3.1 6.4 6.0 2.7 0.5 0.2 0.2
2.6 4.1 6.8 4.2 3.7 6.4 6.2 6.2 5.3 6.4 4.6 2.6 3.5 0.9 1.2 1.8 6.1 8.4 3.2 1.0 0.4 0.1
3.3 4.5 5.4 6.6 5.9 6.9 8.3 7.5 5.9 4.7 2.2 2.0 2.8 2.7 1.4 1.4 5.7 8.6 9.2 3.7 0.8 0.4

GFSNIL_prec_kuchsnow_315.txt.gz
Snowfall_Accumulation
0.0 0.0 0.0 0.0 0.0 0.0 0.0 0.1 0.0 0.0 0.0 0.0 0.0 0.0 0.0 0.0 0.0 0.0 0.0 0.0 0.0 0.0
0.3 0.4 0.4 0.0 0.0 0.0 0.1 0.1 0.1 0.1 0.1 0.0 0.0 0.0 0.0 0.0 0.0 0.0 0.0 0.0 0.0 0.0
0.6 0.7 0.6 0.6 0.0 0.1 0.2 0.1 0.1 0.1 0.0 0.0 0.0 0.0 0.0 0.0 0.0 0.0 0.0 0.0 0.0 0.0
0.3 0.1 0.6 0.5 0.2 0.2 0.1 0.0 0.3 0.0 0.0 0.0 0.0 0.0 0.0 0.0 0.0 0.0 0.0 0.0 0.0 0.0
0.9 0.6 0.1 0.5 0.4 0.2 0.0 0.0 0.0 0.6 0.0 0.0 0.0 0.0 0.0 0.1 0.1 0.0 0.0 0.0 0.0 0.0
0.7 0.9 0.4 0.0 0.0 0.4 0.4 0.0 0.6 1.0 1.2 0.1 0.0 0.0 0.1 0.0 0.0 0.0 0.0 0.0 0.0 0.0
0.4 0.5 0.5 0.3 0.2 1.0 0.4 0.5 0.6 0.4 1.0 0.5 0.4 0.2 0.2 0.0 0.0 0.0 0.0 0.0 0.0 0.0
0.5 1.2 1.2 1.5 1.5 1.1 1.8 1.5 0.9 1.1 0.9 0.6 0.1 0.0 0.5 0.3 1.1 1.1 0.7 0.3 0.7 0.7
2.3 1.4 2.4 2.8 3.1 2.3 1.9 2.1 0.8 1.3 0.7 0.4 0.0 0.0 0.3 0.4 2.6 3.5 3.0 2.0 2.2 1.6
3.7 3.1 3.2 3.4 3.1 2.9 2.4 1.9 1.2 2.0 1.5 1.0 0.2 0.3 0.6 0.7 2.4 5.7 5.4 4.1 3.4 1.9
3.0 2.3 2.1 2.3 2.1 1.8 1.6 2.9 2.9 2.8 2.1 3.7 3.0 1.8 1.6 2.6 6.2 6.5 4.5 2.7 1.9 1.1
2.1 1.9 2.0 2.5 2.3 3.6 4.5 6.4 6.0 6.3 7.7 6.5 4.6 1.0 1.8 3.5 6.8 6.2 3.0 0.6 0.2 0.2
2.6 4.1 6.8 4.2 3.7 6.4 6.2 6.2 5.3 6.4 4.6 2.8 3.7 1.1 1.4 2.1 6.2 8.7 3.3 1.0 0.4 0.1
3.3 4.5 5.4 6.6 5.9 6.9 8.3 7.5 6.1 4.8 2.2 2.2 3.0 2.8 1.6 1.7 6.1 8.9 9.4 3.8 0.8 0.4

GFSNIL_prec_kuchsnow_318.txt.gz
Snowfall_Accumulation
0.0 0.0 0.0 0.0 0.0 0.0 0.0 0.1 0.0 0.0 0.0 0.0 0.0 0.0 0.0 0.0 0.0 0.0 0.0 0.0 0.0 0.0
0.3 0.4 0.4 0.0 0.0 0.0 0.1 0.1 0.1 0.1 0.1 0.0 0.0 0.0 0.0 0.0 0.0 0.0 0.0 0.0 0.0 0.0
0.6 0.7 0.6 0.6 0.0 0.1 0.2 0.1 0.1 0.1 0.1 0.0 0.0 0.0 0.0 0.0 0.0 0.0 0.0 0.0 0.0 0.0
0.3 0.1 0.6 0.5 0.2 0.2 0.1 0.0 0.3 0.0 0.0 0.0 0.0 0.0 0.0 0.0 0.0 0.0 0.0 0.0 0.0 0.0
0.9 0.6 0.1 0.5 0.4 0.2 0.0 0.0 0.0 0.6 0.0 0.0 0.0 0.0 0.0 0.1 0.1 0.0 0.1 0.1 0.0 0.0
0.7 0.9 0.4 0.0 0.0 0.4 0.4 0.0 0.6 1.0 1.2 0.1 0.0 0.0 0.1 0.0 0.0 0.0 0.0 0.0 0.0 0.0
0.4 0.5 0.5 0.3 0.2 1.0 0.4 0.5 0.6 0.4 1.0 0.5 0.4 0.2 0.2 0.0 0.0 0.0 0.0 0.0 0.0 0.0
0.5 1.2 1.2 1.5 1.5 1.1 1.8 1.5 0.9 1.1 0.9 0.6 0.1 0.2 0.6 0.3 1.1 1.1 0.7 0.3 0.7 0.7
2.3 1.4 2.4 2.8 3.1 2.3 1.9 2.1 0.8 1.3 0.7 0.4 0.1 0.0 0.3 0.4 2.6 3.5 3.0 2.0 2.2 1.6
3.7 3.1 3.2 3.4 3.1 2.9 2.4 1.9 1.2 2.0 1.6 1.1 0.2 0.3 0.6 0.7 2.4 5.7 5.4 4.1 3.4 2.1
3.0 2.3 2.1 2.3 2.1 1.8 1.6 2.9 2.9 2.9 2.2 3.7 3.0 1.8 1.7 2.8 6.2 6.5 4.5 2.7 2.2 1.3
2.2 1.9 2.0 2.5 2.3 3.6 4.5 6.4 6.1 6.3 7.7 6.5 4.6 1.1 1.9 3.7 7.3 6.3 3.0 0.8 0.4 0.3
2.7 4.1 6.8 4.2 3.7 6.4 6.2 6.2 5.3 6.4 4.6 2.8 3.7 1.1 1.6 2.4 6.2 9.0 3.6 1.1 0.4 0.1
3.3 4.5 5.4 6.6 5.9 6.9 8.3 7.5 6.1 4.8 2.2 2.2 3.0 2.8 1.7 1.9 6.1 9.0 9.5 3.8 0.9 0.4

GFSNIL_prec_kuchsnow_324.txt.gz
Snowfall_Accumulation
0.0 0.0 0.0 0.0 0.0 0.0 0.0 0.1 0.0 0.0 0.0 0.0 0.0 0.0 0.0 0.0 0.0 0.0 0.0 0.0 0.0 0.0
0.3 0.4 0.4 0.0 0.0 0.0 0.1 0.1 0.1 0.1 0.1 0.0 0.0 0.0 0.0 0.0 0.0 0.0 0.0 0.0 0.0 0.0
0.6 0.7 0.6 0.6 0.0 0.1 0.2 0.1 0.1 0.1 0.1 0.0 0.0 0.0 0.0 0.0 0.0 0.0 0.0 0.0 0.0 0.0
0.3 0.1 0.6 0.5 0.2 0.2 0.1 0.0 0.3 0.0 0.1 0.0 0.0 0.0 0.0 0.0 0.1 0.0 0.0 0.0 0.0 0.0
0.9 0.6 0.1 0.5 0.4 0.2 0.0 0.0 0.0 0.6 0.0 0.0 0.0 0.0 0.0 0.1 0.1 0.0 0.2 0.2 0.1 0.0
0.7 0.9 0.4 0.0 0.0 0.4 0.4 0.0 0.6 1.0 1.2 0.1 0.0 0.0 0.1 0.0 0.0 0.1 0.0 0.0 0.0 0.0
0.4 0.5 0.5 0.3 0.2 1.0 0.4 0.5 0.6 0.4 1.0 0.5 0.4 0.2 0.2 0.0 0.0 0.0 0.0 0.0 0.0 0.0
0.5 1.2 1.2 1.5 1.5 1.1 1.8 1.5 0.9 1.1 0.9 0.6 0.1 0.2 0.6 0.3 1.1 1.1 0.7 0.3 0.7 0.7
2.6 1.6 2.5 2.8 3.1 2.3 1.9 2.1 0.8 1.3 0.7 0.4 0.1 0.0 0.3 0.4 2.6 3.5 3.0 2.0 2.2 1.6
3.9 3.2 3.3 3.4 3.1 2.9 2.4 1.9 1.2 2.0 1.6 1.1 0.2 0.3 0.6 0.7 2.4 5.7 5.4 4.1 3.4 2.1
3.2 2.3 2.1 2.3 2.1 1.8 1.6 2.9 2.9 2.9 2.2 3.7 3.0 1.8 1.7 2.9 6.3 6.5 4.5 2.7 2.2 1.3
2.4 2.1 2.1 2.6 2.5 3.7 4.5 6.4 6.1 6.3 7.7 6.5 4.6 1.1 2.0 4.0 7.7 6.3 3.0 0.8 0.4 0.3
2.7 4.1 6.8 4.2 3.7 6.5 6.3 6.2 5.3 6.4 4.6 2.8 3.7 1.1 1.6 2.5 6.2 9.0 3.6 1.1 0.4 0.2
3.3 4.6 5.4 6.6 5.9 6.9 8.3 7.5 6.1 4.8 2.2 2.2 3.0 2.8 1.7 2.1 6.1 9.0 9.5 3.8 0.9 0.4

GFSNIL_prec_kuchsnow_327.txt.gz
Snowfall_Accumulation
0.0 0.0 0.0 0.0 0.0 0.0 0.0 0.1 0.0 0.0 0.0 0.0 0.0 0.0 0.0 0.0 0.0 0.0 0.0 0.0 0.0 0.0
0.3 0.4 0.4 0.0 0.0 0.0 0.1 0.1 0.1 0.1 0.1 0.0 0.0 0.0 0.0 0.0 0.0 0.0 0.0 0.0 0.0 0.0
0.6 0.7 0.6 0.6 0.0 0.1 0.2 0.1 0.1 0.1 0.1 0.0 0.0 0.0 0.0 0.0 0.0 0.0 0.0 0.0 0.0 0.0
0.3 0.1 0.6 0.5 0.2 0.2 0.1 0.0 0.3 0.0 0.1 0.0 0.0 0.0 0.0 0.0 0.1 0.0 0.0 0.0 0.0 0.0
0.9 0.8 0.1 0.8 0.4 0.2 0.0 0.0 0.0 0.6 0.0 0.0 0.0 0.0 0.0 0.1 0.1 0.0 0.2 0.2 0.1 0.0
1.4 1.3 0.5 0.0 0.0 0.4 0.4 0.0 0.6 1.0 1.2 0.1 0.0 0.0 0.1 0.0 0.0 0.1 0.0 0.0 0.0 0.0
1.0 0.8 0.5 0.3 0.2 1.0 0.4 0.5 0.6 0.4 1.0 0.5 0.4 0.2 0.2 0.0 0.0 0.0 0.0 0.0 0.0 0.0
0.8 1.3 1.2 1.5 1.5 1.1 1.8 1.5 0.9 1.1 0.9 0.6 0.1 0.2 0.6 0.3 1.1 1.1 0.7 0.3 0.7 0.7
2.8 1.7 2.5 2.8 3.1 2.3 1.9 2.1 0.8 1.3 0.7 0.4 0.1 0.0 0.3 0.4 2.6 3.5 3.0 2.0 2.2 1.6
4.8 4.0 4.0 3.4 3.1 2.9 2.4 1.9 1.2 2.1 1.7 1.1 0.2 0.3 0.6 0.7 2.4 5.7 5.4 4.1 3.4 2.1
4.4 3.3 3.0 3.0 2.7 2.3 1.9 3.1 3.1 2.9 2.2 3.7 3.0 1.8 1.7 2.9 6.3 6.5 4.5 2.7 2.2 1.3
3.3 2.8 2.6 3.1 2.9 3.9 4.6 6.5 6.1 6.3 7.7 6.5 4.6 1.1 2.1 4.0 7.7 6.3 3.0 0.8 0.4 0.3
3.4 4.6 7.1 4.4 3.9 6.6 6.4 6.3 5.4 6.4 4.6 2.8 3.7 1.1 1.6 2.5 6.2 9.0 3.6 1.1 0.4 0.2
3.6 4.9 5.5 6.6 5.9 6.9 8.4 7.6 6.1 4.8 2.2 2.2 3.0 2.8 1.7 2.1 6.1 9.0 9.5 3.8 0.9 0.4

GFSNIL_prec_kuchsnow_330.txt.gz
Snowfall_Accumulation
0.0 0.0 0.0 0.0 0.0 0.0 0.0 0.1 0.0 0.0 0.0 0.0 0.0 0.0 0.0 0.0 0.0 0.0 0.0 0.0 0.0 0.0
0.3 0.4 0.4 0.0 0.0 0.0 0.1 0.1 0.1 0.1 0.1 0.0 0.0 0.0 0.0 0.0 0.0 0.0 0.0 0.0 0.0 0.0
0.6 0.7 0.6 0.6 0.0 0.1 0.2 0.1 0.1 0.1 0.1 0.0 0.0 0.0 0.0 0.0 0.0 0.0 0.0 0.0 0.0 0.0
0.3 0.1 0.6 0.5 0.2 0.2 0.1 0.0 0.3 0.0 0.1 0.0 0.0 0.0 0.0 0.0 0.1 0.0 0.0 0.0 0.0 0.0
3.3 1.9 0.1 0.8 0.4 0.2 0.0 0.0 0.0 0.6 0.0 0.0 0.0 0.0 0.0 0.1 0.1 0.0 0.2 0.2 0.1 0.0
5.2 4.1 1.9 0.0 0.0 0.4 0.4 0.0 0.6 1.0 1.2 0.1 0.0 0.0 0.1 0.0 0.0 0.1 0.0 0.0 0.0 0.0
3.9 3.6 2.7 1.5 0.9 1.4 0.6 0.8 0.7 0.4 1.0 0.5 0.4 0.2 0.2 0.0 0.0 0.2 0.0 0.0 0.0 0.0
2.5 2.7 2.3 2.3 2.0 1.4 2.0 1.6 0.9 1.2 0.9 0.6 0.1 0.2 0.6 0.4 1.3 1.4 0.9 0.4 0.7 0.7
4.2 2.7 3.2 3.2 3.3 2.3 1.9 2.1 0.8 1.3 0.7 0.4 0.1 0.0 0.3 0.4 2.7 3.6 3.1 2.1 2.2 1.6
6.3 5.2 4.9 4.1 3.4 3.0 2.5 1.9 1.2 2.1 1.7 1.1 0.2 0.3 0.6 0.7 2.5 5.8 5.5 4.1 3.4 2.1
5.8 4.7 4.4 4.2 3.8 3.0 2.3 3.3 3.1 2.9 2.2 3.7 3.0 1.8 1.7 2.9 6.3 6.5 4.5 2.7 2.2 1.3
4.6 4.2 4.1 4.5 4.3 5.2 5.7 7.5 6.8 6.8 8.0 6.8 4.9 1.2 2.1 4.0 7.8 6.4 3.0 0.8 0.4 0.3
4.5 5.8 8.4 5.7 5.1 7.6 7.2 7.0 6.0 6.9 5.0 3.0 3.9 1.2 1.7 2.5 6.2 9.0 3.6 1.1 0.4 0.2
4.5 6.0 6.7 7.7 6.8 7.7 9.0 8.0 6.5 5.1 2.4 2.3 3.1 2.9 1.7 2.1 6.1 9.0 9.5 3.8 0.9 0.4

GFSNIL_prec_kuchsnow_333.txt.gz
Snowfall_Accumulation
0.0 0.0 0.0 0.0 0.0 0.0 0.0 0.1 0.0 0.0 0.0 0.0 0.0 0.0 0.0 0.0 0.0 0.0 0.0 0.0 0.0 0.0
0.3 0.4 0.4 0.0 0.0 0.0 0.1 0.1 0.1 0.1 0.1 0.0 0.0 0.0 0.0 0.0 0.0 0.0 0.0 0.0 0.0 0.0
0.6 0.7 0.6 0.6 0.0 0.1 0.2 0.1 0.1 0.1 0.1 0.0 0.0 0.0 0.0 0.0 0.0 0.0 0.0 0.0 0.0 0.0
0.3 0.1 0.6 0.5 0.2 0.2 0.1 0.0 0.3 0.0 0.1 0.0 0.0 0.0 0.0 0.0 0.1 0.0 0.0 0.0 0.0 0.0
3.3 1.9 0.1 0.8 0.4 0.2 0.0 0.0 0.0 0.6 0.0 0.0 0.0 0.0 0.0 0.1 0.1 0.0 0.2 0.2 0.1 0.0
8.0 7.8 4.7 0.0 0.0 0.4 0.4 0.0 0.6 1.0 1.2 0.1 0.0 0.0 0.1 0.0 0.0 0.1 0.0 0.0 0.0 0.0
7.2 7.3 7.0 4.9 3.6 3.6 2.4 0.8 0.7 0.4 1.0 0.5 0.4 0.2 0.2 0.0 0.0 0.2 0.0 0.0 0.0 0.0
5.6 5.7 5.4 5.7 5.0 4.0 4.2 3.6 2.7 2.5 1.6 0.6 0.1 0.2 0.6 0.4 1.3 1.4 0.9 0.4 0.9 0.7
6.6 5.2 5.6 5.6 5.7 4.5 3.7 3.6 2.1 2.5 1.8 1.3 0.5 0.0 0.3 0.4 2.8 3.6 3.3 2.3 2.4 1.8
8.2 7.1 7.0 5.8 5.0 4.5 3.7 2.9 2.1 2.7 2.1 1.4 0.4 0.3 0.6 0.7 2.7 5.9 5.6 4.2 3.5 2.1
7.2 6.2 5.8 5.6 5.1 4.2 3.4 4.2 3.7 3.4 2.4 3.8 3.1 1.8 1.7 3.1 6.6 6.8 4.8 2.9 2.3 1.4
5.7 5.3 5.1 5.6 5.5 6.4 6.8 8.4 7.6 7.4 8.4 7.3 5.1 1.2 2.1 4.2 8.2 7.0 3.5 1.1 0.6 0.3
5.3 6.6 9.3 6.7 6.0 8.7 8.2 8.0 7.0 7.9 5.8 3.5 4.5 1.4 1.8 2.8 6.7 9.5 4.0 1.3 0.5 0.2
4.9 6.6 7.4 8.5 7.7 8.6 9.9 8.9 7.3 5.9 3.1 3.0 3.8 3.5 2.0 2.2 6.3 9.3 9.8 4.0 0.9 0.5

GFSNIL_prec_kuchsnow_336.txt.gz
Snowfall_Accumulation
0.0 0.0 0.0 0.0 0.0 0.0 0.0 0.1 0.0 0.0 0.0 0.0 0.0 0.0 0.0 0.0 0.0 0.0 0.0 0.0 0.0 0.0
0.3 0.4 0.4 0.0 0.0 0.0 0.1 0.1 0.1 0.1 0.1 0.0 0.0 0.0 0.0 0.0 0.0 0.0 0.0 0.0 0.0 0.0
0.6 0.7 0.6 0.6 0.0 0.1 0.2 0.1 0.1 0.1 0.1 0.0 0.0 0.0 0.0 0.0 0.0 0.0 0.0 0.0 0.0 0.0
0.3 0.1 0.6 0.5 0.2 0.2 0.1 0.0 0.3 0.0 0.1 0.0 0.0 0.0 0.0 0.0 0.1 0.0 0.0 0.0 0.0 0.0
4.3 2.5 0.1 0.8 0.4 0.2 0.0 0.0 0.0 0.6 0.0 0.0 0.0 0.0 0.0 0.1 0.1 0.0 0.2 0.2 0.1 0.0
9.5 9.1 6.0 0.9 0.0 0.4 0.4 0.0 0.6 1.0 1.2 0.1 0.0 0.0 0.1 0.0 0.0 0.1 0.0 0.0 0.0 0.0
9.9 9.3 9.1 6.4 5.1 3.6 2.4 0.8 0.7 0.4 1.0 0.5 0.4 0.2 0.2 0.0 0.0 0.2 0.0 0.0 0.0 0.0
8.5 8.7 7.7 8.1 6.8 5.7 6.3 6.1 4.8 3.8 1.9 0.6 0.1 0.2 0.6 0.4 1.3 1.4 0.9 0.4 0.9 0.7
9.3 7.9 8.6 8.5 8.3 6.6 6.0 6.3 5.1 5.1 3.6 2.1 0.7 0.0 0.3 0.5 2.9 3.7 3.3 2.3 2.5 1.8
10.9 9.8 9.9 8.8 7.9 7.3 6.4 5.3 4.6 5.5 4.6 3.5 1.3 0.3 0.6 0.8 3.1 6.3 5.8 4.3 3.6 2.2
9.2 8.5 8.4 8.2 7.8 7.3 6.1 6.7 5.8 5.4 4.4 5.8 3.1 1.8 1.7 3.4 7.1 7.3 5.2 3.1 2.5 1.6
7.5 7.2 7.1 7.7 7.9 8.9 9.4 11.2 10.1 9.5 10.0 8.9 6.3 1.4 2.4 4.6 8.6 7.4 4.0 1.4 0.8 0.6
6.8 8.2 10.9 8.4 7.9 10.6 10.1 10.2 9.1 9.9 7.8 4.3 5.5 1.6 2.1 3.1 7.1 10.0 4.4 1.7 0.8 0.3
5.7 7.7 8.7 9.8 9.0 10.0 11.3 10.3 8.8 7.7 4.8 4.5 4.7 4.0 2.2 2.4 6.7 9.6 10.0 4.3 1.3 0.7

GFSNIL_prec_kuchsnow_339.txt.gz
Snowfall_Accumulation
0.0 0.0 0.0 0.0 0.0 0.0 0.0 0.1 0.0 0.0 0.0 0.0 0.0 0.0 0.0 0.0 0.0 0.0 0.0 0.0 0.0 0.0
0.3 0.4 0.4 0.0 0.0 0.0 0.1 0.1 0.1 0.1 0.1 0.0 0.0 0.0 0.0 0.0 0.0 0.0 0.0 0.0 0.0 0.0
0.6 0.7 0.6 0.6 0.0 0.1 0.2 0.1 0.1 0.1 0.1 0.0 0.0 0.0 0.0 0.0 0.0 0.0 0.0 0.0 0.0 0.0
0.3 0.5 0.6 0.5 0.2 0.2 0.1 0.0 0.3 0.0 0.1 0.0 0.0 0.0 0.0 0.0 0.1 0.0 0.0 0.0 0.0 0.0
4.8 3.1 0.8 0.8 0.4 0.2 0.0 0.0 0.0 0.6 0.0 0.0 0.0 0.0 0.0 0.1 0.1 0.0 0.2 0.2 0.1 0.0
10.6 10.1 7.0 2.2 0.0 0.4 0.4 0.0 0.6 1.0 1.2 0.1 0.0 0.0 0.1 0.0 0.0 0.1 0.0 0.0 0.0 0.0
11.1 10.9 11.0 8.1 6.4 4.6 2.4 0.8 0.7 0.4 1.0 0.5 0.4 0.2 0.2 0.0 0.0 0.2 0.0 0.0 0.0 0.0
10.1 10.2 9.4 10.2 8.8 6.8 7.3 6.1 4.8 3.8 1.9 0.6 0.1 0.2 0.6 0.4 1.3 1.4 0.9 0.4 0.9 0.7
10.8 9.6 10.1 10.3 10.5 8.6 7.3 7.4 6.1 6.7 3.6 3.9 0.7 0.0 0.3 0.5 2.9 3.7 3.3 2.3 2.5 1.8
12.7 11.5 11.8 10.7 9.6 9.2 8.6 7.0 6.0 6.9 6.7 6.2 3.2 0.3 0.6 0.8 3.1 6.3 5.8 4.3 3.6 2.2
10.7 10.5 10.3 10.1 9.9 9.2 8.1 9.1 8.2 7.1 6.2 8.1 5.4 2.2 1.7 4.0 8.5 8.5 6.3 4.0 3.1 1.9
9.0 8.9 9.0 9.6 10.1 11.2 11.5 13.2 12.7 12.2 12.1 10.8 8.3 1.9 3.0 5.8 10.3 8.9 5.3 2.5 1.6 1.0
8.1 9.7 12.6 10.3 10.0 12.9 12.2 12.5 11.5 12.8 10.6 5.6 7.3 2.4 2.8 4.4 8.5 11.5 5.7 2.8 1.4 0.4
6.6 8.9 10.1 11.4 10.7 11.9 13.3 12.3 11.1 10.3 7.4 7.1 6.5 5.6 3.0 3.3 8.0 10.8 11.1 5.1 1.9 1.0

GFSNIL_prec_kuchsnow_342.txt.gz
Snowfall_Accumulation
0.0 0.0 0.0 0.0 0.0 0.0 0.0 0.1 0.0 0.0 0.0 0.0 0.0 0.0 0.0 0.0 0.0 0.0 0.0 0.0 0.0 0.0
0.4 0.4 0.4 0.0 0.0 0.0 0.1 0.1 0.1 0.1 0.1 0.0 0.0 0.0 0.0 0.0 0.0 0.0 0.0 0.0 0.0 0.0
0.6 1.0 0.6 0.6 0.0 0.1 0.2 0.1 0.1 0.1 0.1 0.0 0.0 0.0 0.0 0.0 0.0 0.0 0.0 0.0 0.0 0.0
0.3 0.5 0.6 1.4 0.2 0.2 0.1 0.0 0.3 0.0 0.1 0.0 0.0 0.0 0.0 0.0 0.1 0.0 0.0 0.0 0.0 0.0
4.8 3.1 0.8 0.8 1.6 0.2 0.0 0.0 0.0 0.6 0.0 0.0 0.0 0.0 0.0 0.1 0.1 0.0 0.2 0.2 0.1 0.0
10.6 10.1 7.0 2.2 0.0 1.5 0.4 0.0 0.6 1.0 1.2 0.1 0.0 0.0 0.1 0.0 0.0 0.1 0.0 0.0 0.0 0.0
11.1 11.2 11.6 8.6 6.4 5.7 3.4 0.8 0.7 0.4 1.0 0.5 0.4 0.2 0.2 0.0 0.0 0.2 0.0 0.0 0.0 0.0
10.4 10.7 9.4 10.7 8.8 8.0 8.2 6.9 4.8 3.8 1.9 0.6 0.1 0.2 0.6 0.4 1.3 1.4 0.9 0.4 0.9 0.7
11.1 9.6 10.1 10.9 11.4 9.5 8.4 8.3 7.1 7.8 3.6 3.9 0.7 0.0 0.3 0.5 2.9 3.7 3.3 2.3 2.5 1.8
13.1 12.0 11.8 11.6 10.6 9.2 9.6 8.0 7.0 8.1 7.9 7.3 3.2 0.3 0.6 0.8 3.1 6.3 5.8 4.3 3.6 2.2
11.1 11.0 10.3 11.0 10.8 10.4 9.4 10.2 9.3 8.1 7.3 9.3 6.5 2.2 1.7 4.0 8.5 8.5 6.3 4.0 3.1 1.9
9.5 9.5 9.8 10.6 11.3 12.5 12.8 14.5 14.1 13.4 13.2 12.1 9.6 1.9 3.0 7.1 12.0 9.9 5.3 2.5 1.6 1.0
8.8 10.5 13.6 11.5 11.3 14.4 13.7 14.3 13.3 14.5 12.5 6.5 8.8 2.8 2.8 5.5 10.3 13.4 7.4 2.8 1.4 0.4
7.3 9.7 11.1 12.5 11.9 13.3 15.0 14.1 12.8 11.7 9.0 8.8 7.7 6.8 3.5 4.0 9.5 12.2 12.7 6.6 3.5 2.1

GFSNIL_prec_kuchsnow_345.txt.gz
Snowfall_Accumulation
1.0 0.7 1.1 0.0 0.0 0.0 0.0 0.1 0.0 0.0 0.0 0.0 0.0 0.0 0.0 0.0 0.0 0.0 0.0 0.0 0.0 0.0
0.7 1.0 1.0 0.0 0.0 0.0 0.1 0.1 0.1 0.1 0.1 0.0 0.0 0.0 0.0 0.0 0.0 0.0 0.0 0.0 0.0 0.0
1.0 1.2 0.9 1.0 0.0 0.1 0.2 0.1 0.1 0.1 0.1 0.0 0.0 0.0 0.0 0.0 0.0 0.0 0.0 0.0 0.0 0.0
0.7 0.7 0.7 1.4 0.4 0.2 0.1 0.0 0.3 0.0 0.1 0.0 0.0 0.0 0.0 0.0 0.1 0.0 0.0 0.0 0.0 0.0
4.9 3.3 0.9 0.8 1.6 0.2 0.0 0.0 0.0 0.6 0.0 0.0 0.0 0.0 0.0 0.1 0.1 0.0 0.2 0.2 0.1 0.0
10.6 10.1 7.1 2.3 0.0 1.6 0.4 0.0 0.6 1.0 1.2 0.1 0.0 0.0 0.1 0.0 0.0 0.1 0.0 0.0 0.0 0.0
11.1 11.3 11.6 8.7 6.5 5.7 3.7 1.0 0.7 0.4 1.0 0.5 0.4 0.2 0.2 0.0 0.0 0.2 0.0 0.0 0.0 0.0
10.4 10.7 9.4 10.7 8.8 8.1 8.2 7.3 5.3 3.8 1.9 0.6 0.1 0.2 0.6 0.4 1.3 1.4 0.9 0.4 0.9 0.7
11.1 9.6 10.1 10.9 11.4 9.5 8.4 8.3 7.1 8.5 3.6 3.9 0.7 0.0 0.3 0.5 2.9 3.7 3.3 2.3 2.5 1.8
13.1 12.0 11.8 11.7 10.8 9.3 9.7 8.0 7.0 8.1 8.4 8.3 3.2 0.3 0.6 0.8 3.1 6.3 5.8 4.3 3.6 2.2
11.1 11.2 10.4 11.2 10.9 10.4 9.5 10.3 9.5 8.4 7.3 9.3 7.2 2.2 1.7 4.0 8.5 8.5 6.3 4.0 3.1 1.9
9.7 9.8 10.0 10.8 11.5 12.8 13.1 14.7 14.5 13.7 13.5 12.1 10.3 1.9 3.0 7.9 12.0 9.9 5.3 2.5 1.6 1.0
9.1 10.8 13.9 11.9 11.8 14.9 14.4 14.9 14.1 15.2 13.1 6.8 9.7 2.8 2.8 6.2 12.3 15.5 8.5 3.0 1.4 0.4
7.3 10.1 11.6 13.0 12.5 14.1 15.8 15.0 13.5 12.6 9.8 9.7 8.6 7.7 3.9 4.4 10.8 13.6 14.0 7.5 3.8 2.1

GFSNIL_prec_kuchsnow_348.txt.gz
Snowfall_Accumulation
3.4 3.4 3.4 1.6 0.9 0.0 0.0 0.1 0.0 0.0 0.0 0.0 0.0 0.0 0.0 0.0 0.0 0.0 0.0 0.0 0.0 0.0
3.3 3.3 3.5 2.2 1.7 0.0 0.1 0.1 0.1 0.1 0.1 0.0 0.0 0.0 0.0 0.0 0.0 0.0 0.0 0.0 0.0 0.0
2.8 3.3 3.0 2.8 2.4 2.2 1.7 0.1 0.1 0.1 0.1 0.0 0.0 0.0 0.0 0.0 0.0 0.0 0.0 0.0 0.0 0.0
0.7 2.1 2.5 3.0 1.9 2.5 2.2 1.4 0.3 0.0 0.1 0.0 0.0 0.0 0.0 0.0 0.1 0.0 0.0 0.0 0.0 0.0
4.9 3.3 2.1 2.1 2.6 1.3 1.8 2.0 1.6 0.6 0.0 0.0 0.0 0.0 0.0 0.1 0.1 0.0 0.2 0.2 0.1 0.0
10.6 10.1 7.1 3.3 1.0 2.2 1.1 1.4 2.8 3.2 1.2 0.1 0.0 0.0 0.1 0.0 0.0 0.1 0.0 0.0 0.0 0.0
11.1 11.3 11.6 9.0 7.2 6.5 4.1 1.4 1.8 2.6 1.0 0.5 0.4 0.2 0.2 0.0 0.0 0.2 0.0 0.0 0.0 0.0
10.4 10.7 9.4 10.7 8.8 8.5 8.7 7.7 5.7 4.7 2.9 0.6 0.1 0.2 0.6 0.4 1.3 1.4 0.9 0.4 0.9 0.7
11.1 9.6 10.1 10.9 11.4 9.5 8.6 8.6 7.4 9.0 4.1 4.4 0.7 0.0 0.3 0.5 2.9 3.7 3.3 2.3 2.5 1.8
13.1 12.0 11.8 11.7 10.8 9.3 9.7 8.1 7.2 8.4 9.1 8.7 3.5 0.3 0.6 0.8 3.1 6.3 5.8 4.3 3.6 2.2
11.1 11.2 10.4 11.2 10.9 10.4 9.5 10.3 9.8 8.6 7.5 9.6 7.7 2.2 1.7 4.0 8.5 8.5 6.3 4.0 3.1 1.9
9.7 9.8 10.0 10.8 11.7 12.9 13.2 14.7 14.8 14.1 13.7 12.2 10.6 2.3 3.0 7.9 12.0 9.9 5.3 2.5 1.6 1.0
9.1 10.8 13.9 12.4 12.3 15.5 14.9 15.5 14.8 15.8 13.7 7.2 10.0 3.1 2.8 6.5 13.5 17.3 8.5 3.0 1.4 0.4
7.3 10.1 11.6 13.0 13.2 14.8 16.5 15.7 14.2 13.2 10.3 10.1 9.1 8.3 4.1 4.7 11.6 14.5 15.3 9.0 3.8 2.1

GFSNIL_prec_kuchsnow_351.txt.gz
Snowfall_Accumulation
3.4 3.4 5.1 3.4 2.4 2.0 1.4 0.8 0.0 0.0 0.0 0.0 0.0 0.0 0.0 0.0 0.0 0.0 0.0 0.0 0.0 0.0
3.3 3.3 3.5 4.7 4.0 1.6 2.1 1.9 0.1 0.1 0.1 0.0 0.0 0.0 0.0 0.0 0.0 0.0 0.0 0.0 0.0 0.0
2.8 3.3 3.0 2.8 5.2 4.5 3.5 2.0 2.0 2.2 0.1 0.0 0.0 0.0 0.0 0.0 0.0 0.0 0.0 0.0 0.0 0.0
0.7 2.1 2.5 3.0 4.2 5.1 4.5 3.3 2.0 2.2 3.2 0.0 0.0 0.0 0.0 0.0 0.1 0.0 0.0 0.0 0.0 0.0
4.9 3.3 2.1 2.1 2.6 3.4 4.1 4.4 3.4 2.6 3.0 2.8 0.0 0.0 0.0 0.1 0.1 0.0 0.2 0.2 0.1 0.0
10.6 10.1 7.1 3.3 1.0 3.5 3.1 4.0 5.1 5.0 3.9 3.2 0.0 0.0 0.1 0.0 0.0 0.1 0.0 0.0 0.0 0.0
11.1 11.3 11.6 9.0 7.2 6.5 5.4 3.4 4.2 5.1 3.7 4.0 3.1 0.2 0.2 0.0 0.0 0.2 0.0 0.0 0.0 0.0
10.4 10.7 9.4 10.7 8.8 8.5 8.7 9.0 7.7 7.2 5.8 4.0 2.7 0.2 0.6 0.4 1.3 1.4 0.9 0.4 0.9 0.7
11.1 9.6 10.1 10.9 11.4 9.5 8.6 9.2 8.6 11.1 6.5 7.4 3.3 1.4 0.3 0.5 2.9 3.7 3.3 2.3 2.5 1.8
13.1 12.0 11.8 11.7 10.8 9.3 9.7 8.3 7.7 9.9 11.0 10.7 5.7 1.6 0.6 0.8 3.1 6.3 5.8 4.3 3.6 2.2
11.1 11.2 10.4 11.2 10.9 10.4 9.5 10.4 10.1 9.5 9.1 11.3 9.1 3.1 2.9 4.0 8.5 8.5 6.3 4.0 3.1 1.9
9.7 9.8 10.0 10.8 11.7 12.9 13.4 14.7 15.0 14.4 14.6 13.7 12.0 2.9 4.0 7.9 12.0 9.9 5.3 2.5 1.6 1.0
9.1 10.8 13.9 12.4 12.3 15.7 15.3 16.0 15.3 16.1 14.2 8.1 11.6 3.8 2.8 7.8 15.3 19.0 9.9 3.0 1.4 0.4
7.3 10.1 11.6 13.0 13.2 14.8 16.8 16.1 14.6 13.5 10.5 10.6 10.1 9.4 4.3 5.1 12.9 16.0 16.8 10.4 3.8 2.1

GFSNIL_prec_kuchsnow_354.txt.gz
Snowfall_Accumulation
3.4 3.4 5.1 3.4 2.4 2.2 1.4 0.8 0.0 0.7 0.7 0.0 0.0 0.0 0.0 0.0 0.0 0.0 0.0 0.0 0.0 0.0
3.3 3.3 3.5 4.7 4.0 1.6 2.1 2.8 0.1 1.1 1.2 1.0 0.0 0.0 0.0 0.0 0.0 0.0 0.0 0.0 0.0 0.0
2.8 3.3 3.0 2.8 5.2 4.5 3.5 2.0 3.6 3.7 1.3 1.6 1.0 0.0 0.0 0.0 0.0 0.0 0.0 0.0 0.0 0.0
0.7 2.1 2.5 3.0 4.2 5.1 4.5 3.3 3.9 4.1 4.7 1.5 1.7 0.0 0.0 0.0 0.1 0.0 0.0 0.0 0.0 0.0
4.9 3.3 2.1 2.1 2.6 3.4 4.1 4.4 4.9 4.9 4.7 4.7 2.2 1.8 1.0 0.1 0.1 0.0 0.2 0.2 0.1 0.0
10.6 10.1 7.1 3.3 1.0 3.5 3.1 4.0 5.1 6.8 6.0 4.9 2.9 2.5 1.3 0.0 0.0 0.1 0.0 0.0 0.0 0.0
11.1 11.3 11.6 9.0 7.2 6.5 5.4 4.0 4.2 6.5 5.4 6.0 5.3 2.8 2.1 0.0 0.0 0.2 0.0 0.0 0.0 0.0
10.4 10.7 9.4 10.7 8.8 8.5 8.7 9.0 8.7 8.5 7.2 5.9 5.1 2.2 2.6 2.2 1.3 1.4 0.9 0.4 0.9 0.7
11.1 9.6 10.1 10.9 11.4 9.5 8.6 9.2 9.3 12.2 7.9 9.0 5.3 2.8 1.2 0.5 3.7 3.7 3.3 2.3 2.5 1.8
13.1 12.0 11.8 11.7 10.8 9.3 9.7 8.3 7.7 11.0 12.3 12.3 7.5 2.6 0.6 0.8 3.1 6.3 5.8 4.3 3.6 2.2
11.1 11.2 10.4 11.2 10.9 10.4 9.5 10.6 10.6 10.5 10.4 12.7 10.8 4.0 3.3 4.0 10.1 8.5 6.3 4.0 3.1 1.9
9.7 9.8 10.0 10.8 11.7 12.9 13.4 14.7 15.3 15.3 15.9 15.4 14.1 4.1 4.7 9.7 14.8 12.7 5.3 2.5 1.6 1.0
9.1 10.8 13.9 12.4 12.3 15.7 15.3 16.0 15.6 16.9 15.3 9.6 13.6 5.5 3.4 9.2 18.1 22.0 13.2 3.0 1.4 0.4
7.3 10.1 11.6 13.0 13.2 14.8 16.8 16.1 14.6 13.8 11.3 11.7 11.4 11.0 5.3 5.6 14.6 18.1 19.2 13.3 5.9 2.1

GFSNIL_prec_kuchsnow_357.txt.gz
Snowfall_Accumulation
3.4 3.4 5.1 3.4 2.4 2.2 1.4 0.8 0.0 0.7 0.7 0.0 0.0 0.3 0.7 0.0 0.0 0.0 0.0 0.0 0.0 0.0
3.3 3.3 3.5 4.7 4.0 1.6 2.1 2.8 0.1 1.1 1.2 1.0 0.0 0.0 0.5 0.7 0.0 0.0 0.0 0.0 0.0 0.0
2.8 3.3 3.0 2.8 5.2 4.5 3.5 2.0 3.6 3.7 1.3 1.6 1.0 0.0 0.5 0.4 0.5 0.0 0.0 0.0 0.0 0.0
0.7 2.1 2.5 3.0 4.2 5.1 4.5 3.3 3.9 4.1 4.7 1.5 1.7 0.0 0.7 0.4 0.4 0.5 0.0 0.0 0.0 0.0
4.9 3.3 2.1 2.1 2.6 3.4 4.1 4.4 4.9 4.9 5.0 4.7 2.2 1.8 2.1 0.8 0.7 0.5 0.2 0.2 0.1 0.0
10.6 10.1 7.1 3.3 1.0 3.5 3.1 4.0 5.1 6.8 6.4 5.4 2.9 3.3 1.3 1.3 1.0 0.9 0.3 0.0 0.0 0.0
11.1 11.3 11.6 9.0 7.2 6.5 5.4 4.0 4.2 6.5 5.4 6.0 6.1 3.6 3.1 1.4 1.3 1.1 0.5 0.0 0.0 0.0
10.4 10.7 9.4 10.7 8.8 8.5 8.7 9.0 8.7 8.6 7.2 5.9 6.0 3.1 3.8 3.5 2.6 2.6 1.8 0.4 0.9 0.7
11.1 9.6 10.1 10.9 11.4 9.5 8.6 9.2 9.3 12.2 8.3 9.7 6.2 3.7 1.9 1.0 4.5 4.5 4.3 2.3 2.5 1.8
13.1 12.0 11.8 11.7 10.8 9.3 9.7 8.3 7.7 11.0 12.3 13.0 8.6 3.8 1.5 1.1 3.8 7.5 6.8 4.3 3.6 2.2
11.1 11.2 10.4 11.2 10.9 10.4 9.5 10.6 10.6 10.5 10.4 13.6 12.0 5.3 4.4 4.6 11.4 10.0 7.7 4.0 3.1 1.9
9.7 9.8 10.0 10.8 11.7 12.9 13.4 14.7 15.3 15.3 16.4 16.2 15.2 5.5 6.0 10.8 16.1 14.4 7.1 4.2 1.6 1.0
9.1 10.8 13.9 12.4 12.3 15.7 15.3 16.0 15.6 16.9 15.3 10.3 14.7 6.5 4.6 10.4 19.6 23.5 14.9 5.1 3.7 0.4
7.3 10.1 11.6 13.0 13.2 14.8 16.8 16.1 14.6 13.8 11.3 11.7 12.3 12.1 6.2 6.5 16.3 19.9 20.8 15.1 8.2 3.9

GFSNIL_prec_kuchsnow_360.txt.gz
Snowfall_Accumulation
3.4 3.4 5.1 3.4 2.4 2.2 1.4 0.8 0.0 0.7 0.7 0.0 0.0 0.3 0.7 0.0 0.0 0.7 1.0 0.0 0.0 0.0
3.3 3.3 3.5 4.7 4.0 1.6 2.1 2.8 0.1 1.1 1.2 1.0 0.0 0.0 0.5 0.7 0.0 0.0 0.9 0.9 0.0 0.0
2.8 3.3 3.0 2.8 5.2 4.5 3.5 2.0 3.6 3.7 1.3 1.6 1.0 0.0 0.5 0.4 0.5 0.0 1.0 0.9 0.0 0.0
0.7 2.1 2.5 3.0 4.2 5.1 4.5 3.3 3.9 4.1 4.7 1.5 1.7 0.0 0.7 0.4 0.4 0.5 0.9 0.9 1.2 0.0
4.9 3.3 2.1 2.1 2.6 3.4 4.1 4.4 4.9 4.9 5.0 4.7 2.2 1.8 2.2 0.9 0.7 0.5 0.8 1.1 1.4 0.9
10.6 10.1 7.1 3.3 1.0 3.5 3.1 4.0 5.1 6.8 6.4 5.4 2.9 3.3 1.3 1.4 1.0 0.9 0.3 0.0 1.1 1.0
11.1 11.3 11.6 9.0 7.2 6.5 5.4 4.0 4.2 6.5 5.4 6.0 6.2 3.6 3.3 1.7 1.5 1.3 0.5 0.0 0.0 0.9
10.4 10.7 9.4 10.7 8.8 8.5 8.7 9.0 8.7 8.6 7.2 5.9 6.0 3.5 4.8 4.3 3.1 3.0 2.0 0.6 0.9 1.1
11.1 9.6 10.1 10.9 11.4 9.5 8.6 9.2 9.3 12.2 8.3 9.7 6.2 3.7 2.6 1.7 5.3 4.8 4.7 2.6 2.5 1.8
13.1 12.0 11.8 11.7 10.8 9.3 9.7 8.3 7.7 11.0 12.3 13.0 8.6 3.8 1.9 1.6 4.4 7.9 7.4 4.8 4.0 2.5
11.1 11.2 10.4 11.2 10.9 10.4 9.5 10.6 10.6 10.5 10.4 13.6 12.0 5.3 4.9 5.1 11.8 10.4 8.4 4.8 3.7 2.5
9.7 9.8 10.0 10.8 11.7 12.9 13.4 14.7 15.3 15.3 16.4 16.2 15.2 5.5 6.5 11.6 16.8 15.0 7.9 5.2 2.6 2.3
9.1 10.8 13.9 12.4 12.3 15.7 15.3 16.0 15.6 16.9 15.3 10.3 14.7 6.5 4.6 11.3 20.7 24.4 15.8 6.0 4.9 1.3
7.3 10.1 11.6 13.0 13.2 14.8 16.8 16.1 14.6 13.8 11.3 11.7 12.3 12.1 6.2 7.1 17.7 21.5 22.2 16.3 9.9 5.5